ECMWFFLT2_850_thetae_000.txt.gz
Theta_e
326 326 326 326 326 327 325 323 323 323 329 339 335 326 330 331 323 325 334 345 352 349 345 345 343 343 341 341 346 348 348 349 347 348 350 351 350 348 344 342 340 338 338 337 337 338 336 334 333 333 332 331 330 329 328 326 324 323 323 324 324 324 326
325 322 325 326 322 325 330 324 325 326 323 333 334 327 331 329 323 331 338 346 353 343 339 350 351 348 346 343 344 345 345 347 346 347 350 350 350 347 344 342 340 339 338 337 338 337 334 333 333 333 332 331 329 328 327 324 324 324 325 325 325 325 328
327 328 328 327 324 323 327 326 324 325 324 327 326 326 330 323 321 331 335 341 347 342 347 361 361 357 351 345 344 344 343 344 344 346 349 349 349 347 344 343 341 339 338 338 338 336 333 333 333 332 332 330 328 327 325 323 324 325 326 326 326 327 329
326 333 331 328 327 322 322 327 326 327 332 333 326 325 329 325 323 329 332 338 345 349 358 368 366 361 351 344 346 345 342 342 344 346 347 349 349 346 344 342 339 339 338 338 337 334 332 332 332 332 331 330 328 325 323 324 325 326 327 327 327 328 330
324 331 331 330 332 328 325 326 327 328 328 327 325 323 326 329 331 333 332 331 338 351 358 362 364 358 346 343 345 343 341 342 344 345 347 348 347 344 343 341 339 339 339 337 335 332 332 333 333 332 331 330 328 325 324 326 327 328 329 328 326 327 328
324 331 332 328 329 331 331 328 328 329 327 326 326 323 324 328 330 336 335 326 331 351 354 355 358 349 340 341 341 340 341 341 342 345 347 347 345 343 342 340 338 339 338 335 332 331 332 333 333 332 331 329 328 325 325 327 328 329 329 327 324 325 325
334 331 327 323 324 329 333 330 328 331 332 333 331 327 327 325 322 330 333 325 332 350 347 345 347 339 336 338 338 339 340 340 342 343 344 344 343 342 341 339 338 339 337 334 331 331 332 333 333 332 331 330 328 326 326 326 327 327 326 324 321 322 323
350 336 330 327 327 330 330 329 328 329 332 335 336 337 336 327 322 327 327 323 333 346 341 334 335 334 336 337 337 339 338 340 342 341 342 342 341 342 340 339 339 338 335 333 331 332 333 332 333 332 331 330 329 327 325 324 324 324 323 321 320 323 323
341 336 334 333 334 335 334 334 331 329 333 331 330 333 330 325 327 330 325 325 336 348 344 339 338 337 338 336 336 339 338 339 341 339 340 341 339 341 341 338 339 336 333 332 331 331 332 332 333 331 330 330 329 326 324 322 321 322 321 320 321 323 323
327 327 329 333 340 337 332 335 331 329 332 329 329 330 323 324 330 328 329 333 337 345 349 348 346 343 341 338 334 336 338 338 340 339 340 339 340 341 340 338 336 334 332 332 331 332 332 332 332 331 330 330 328 325 324 322 322 321 320 320 322 323 322
327 334 339 342 346 337 330 333 332 330 332 331 333 332 325 331 332 329 340 342 329 334 348 351 352 346 342 340 335 333 337 337 338 339 338 339 341 340 340 337 335 334 333 331 331 332 333 333 331 330 330 329 327 327 324 322 322 321 321 322 322 322 321
332 344 348 342 340 335 334 335 330 331 334 330 331 331 329 335 329 329 353 354 329 329 343 350 357 352 342 339 334 333 335 336 337 339 338 339 340 339 338 335 334 333 332 331 332 332 332 332 330 329 329 328 328 327 326 323 322 322 322 323 322 320 320
338 340 340 339 338 333 337 338 333 332 334 329 329 336 339 337 328 328 351 354 338 335 342 344 348 347 340 337 334 333 335 336 337 337 338 339 339 338 337 335 334 333 331 331 332 333 332 331 329 329 328 329 328 328 326 324 322 322 323 323 321 321 320
334 336 335 336 333 330 332 335 334 333 333 331 330 337 342 335 330 334 341 343 341 338 337 337 333 331 332 333 333 334 333 334 336 337 337 338 337 337 336 334 333 331 331 332 332 333 332 329 328 329 328 328 328 326 326 324 322 322 323 323 322 321 322
328 334 335 331 331 332 331 333 338 335 330 330 328 332 337 333 333 339 335 334 341 336 328 328 325 326 331 332 331 332 333 334 336 336 338 338 337 337 336 334 332 332 332 332 333 332 330 328 328 328 328 327 326 325 324 324 323 323 323 323 322 322 323
327 331 331 333 334 332 329 331 340 339 332 332 330 331 338 338 335 338 332 331 343 341 330 327 328 327 329 330 329 331 332 334 336 337 337 337 337 337 335 333 332 331 332 333 332 331 329 327 328 328 327 325 324 324 324 323 324 323 323 323 323 323 325
331 334 333 336 334 328 329 336 343 342 337 337 333 332 340 341 333 333 332 332 343 346 337 339 340 332 328 329 331 331 332 333 336 337 338 338 337 336 334 332 331 331 332 332 331 329 328 328 328 326 325 324 324 325 324 324 324 323 323 324 323 323 326
334 339 337 333 328 326 334 345 348 342 337 337 335 332 340 342 336 337 337 336 343 347 342 347 346 336 332 330 330 332 333 334 335 336 338 338 336 335 332 331 331 331 331 331 330 329 328 327 326 324 324 324 325 325 325 324 324 324 323 324 324 325 326
334 336 333 328 329 337 347 348 344 338 332 333 335 337 343 343 339 341 340 336 340 340 335 334 332 330 331 330 330 332 331 333 335 336 337 337 335 333 331 331 331 331 331 331 330 328 327 326 325 323 323 325 325 325 326 325 324 324 324 324 325 326 327
333 331 331 331 335 346 349 342 338 334 330 330 330 334 346 352 347 344 345 343 338 329 326 329 329 329 330 330 330 331 330 332 334 335 336 335 332 332 332 331 331 331 330 330 328 328 327 326 324 323 323 325 325 325 325 325 324 324 323 324 325 326 327
335 337 335 333 333 336 338 338 337 333 331 336 336 331 343 358 349 339 347 354 344 330 327 330 330 329 331 333 332 331 331 332 333 333 333 332 331 332 333 332 331 330 329 329 328 327 327 325 324 324 323 325 326 325 325 325 324 324 324 323 323 324 327
339 342 333 330 329 331 340 348 343 330 324 334 337 330 340 357 342 327 339 354 345 332 328 329 330 331 338 345 340 332 330 332 332 332 332 332 332 333 332 331 331 329 329 328 328 327 327 325 325 324 324 325 326 325 325 325 324 324 324 323 322 324 325
336 333 327 330 330 330 343 353 342 327 322 327 330 326 338 352 335 323 333 341 334 330 328 328 332 337 347 355 344 332 331 333 332 332 332 333 333 333 332 331 330 329 329 329 328 327 326 326 325 325 325 325 325 326 326 325 324 324 323 322 323 324 325
334 330 328 333 331 332 346 351 336 325 324 326 325 327 337 343 330 325 332 332 329 330 329 328 335 341 348 351 338 331 332 333 332 333 333 332 332 331 331 331 330 329 329 328 328 327 326 326 325 325 326 326 326 327 326 325 325 324 323 323 323 324 326
335 331 329 329 331 337 345 341 328 323 325 325 325 329 336 335 328 329 333 331 331 332 329 330 335 336 336 337 333 331 333 332 332 333 332 331 331 330 330 330 329 329 329 328 328 328 327 326 326 326 327 327 327 327 327 326 325 324 323 323 323 324 324
332 334 332 328 331 337 333 327 325 324 325 329 331 332 330 327 328 332 332 331 332 332 331 332 333 331 331 332 332 332 332 331 332 332 331 331 330 329 329 329 329 329 330 329 328 328 327 327 326 327 328 328 329 328 327 326 324 323 323 323 323 324 324
329 330 330 329 334 336 326 325 329 327 327 333 334 329 327 328 331 332 332 332 333 332 332 332 331 331 331 330 331 331 330 331 331 330 330 330 329 329 330 329 329 330 330 329 329 328 327 327 327 328 328 329 330 329 327 325 323 322 322 323 323 324 323
328 329 333 333 335 332 326 327 332 330 328 329 329 327 329 331 331 331 332 333 332 332 333 332 330 331 330 329 330 330 330 331 330 330 330 328 328 328 328 328 329 329 329 329 329 328 327 327 327 328 328 329 330 328 325 322 321 321 321 322 323 324 323
332 334 337 335 329 325 325 327 329 328 327 327 327 329 331 330 331 332 333 332 332 333 332 331 330 330 329 329 329 329 329 329 329 329 328 327 327 328 327 328 329 329 329 330 328 328 327 327 327 327 328 328 328 325 322 320 320 320 320 321 323 323 323
332 328 328 327 325 325 326 326 326 327 328 328 328 329 330 330 331 332 331 331 331 331 330 330 330 329 329 328 328 328 328 328 327 327 327 327 327 327 328 328 329 329 330 330 328 327 327 326 327 327 327 327 325 322 320 319 319 320 320 322 323 324 323
330 331 334 330 326 325 325 326 328 328 329 329 329 329 330 330 330 330 330 330 330 330 330 330 329 328 328 327 327 328 327 327 327 327 327 327 327 327 327 328 328 329 329 329 329 327 326 326 327 326 326 326 323 321 320 319 320 320 321 322 323 323 323
329 333 334 327 323 324 325 327 329 329 328 329 329 328 329 330 328 328 329 329 329 330 329 328 327 326 326 325 325 326 326 324 324 324 325 325 326 326 326 327 327 327 328 328 328 327 326 326 326 326 326 324 322 320 321 320 320 321 321 323 323 323 322
333 332 327 324 326 329 327 326 329 330 329 329 328 327 328 328 327 327 327 327 328 328 326 325 324 323 323 323 323 323 323 323 323 323 324 325 325 325 326 325 326 327 327 327 327 326 325 325 326 327 326 323 321 321 322 321 321 321 322 322 323 322 322
334 334 328 327 330 332 330 327 328 330 329 328 328 326 327 327 326 327 327 325 325 324 323 324 323 322 322 323 322 322 322 323 323 324 324 324 325 325 325 325 325 325 325 325 325 325 324 325 326 326 325 323 322 322 322 322 322 322 322 322 322 322 322
328 327 324 323 325 329 328 326 327 329 328 327 327 326 327 326 326 326 325 324 323 323 322 323 323 323 323 323 322 323 323 323 323 324 323 323 323 323 323 324 324 324 324 324 324 324 324 325 326 326 324 323 323 323 323 323 323 322 322 322 322 322 322
323 322 321 322 322 324 325 325 328 328 326 326 326 325 325 325 325 324 324 324 324 323 323 323 323 323 323 323 323 323 323 322 323 323 322 323 324 324 323 324 324 324 324 323 324 324 324 325 326 326 325 325 325 325 324 324 324 324 323 323 322 323 322
321 321 322 323 323 323 324 326 326 326 325 326 326 324 325 325 324 324 324 324 324 323 323 323 323 323 323 323 323 323 323 323 322 322 323 324 324 324 323 323 323 324 324 324 323 324 324 325 326 326 326 326 325 325 325 325 325 325 324 323 322 321 320

ECMWFFLT2_850_thetae_003.txt.gz
Theta_e
324 325 324 324 324 323 322 320 320 321 324 330 327 321 323 322 318 323 326 324 329 333 333 338 338 339 343 341 341 344 348 352 353 352 352 349 342 340 339 337 335 334 334 335 335 335 335 336 336 335 333 333 332 331 330 328 325 323 321 321 322 323 323
324 323 324 324 322 323 324 321 321 324 322 328 331 324 322 321 318 322 324 322 327 327 326 337 344 343 344 343 342 345 348 352 352 351 352 348 342 340 341 340 339 338 336 336 335 335 335 337 337 335 333 333 332 330 329 327 324 322 321 321 321 322 323
324 324 324 324 323 323 324 323 324 323 321 325 329 325 321 319 319 321 323 324 327 327 327 335 343 346 348 345 344 346 348 352 353 352 351 348 342 341 343 345 344 342 339 337 336 335 336 337 336 335 333 332 331 330 329 327 324 322 321 320 321 322 322
324 325 325 324 323 323 323 324 324 324 325 326 326 323 320 320 320 321 321 323 325 329 335 338 340 349 352 347 345 347 349 351 352 352 351 349 344 341 344 347 347 344 341 338 337 336 337 337 335 334 332 331 331 330 329 327 324 322 321 320 321 321 321
323 324 326 325 325 324 323 322 322 323 324 323 323 322 321 320 322 322 320 320 321 329 344 348 347 350 349 347 348 348 349 351 352 351 350 349 346 343 344 347 347 346 342 339 338 338 337 337 335 333 332 331 332 331 329 327 324 322 321 321 321 321 320
321 323 325 325 326 325 325 324 324 324 324 322 321 321 321 321 322 322 321 319 320 332 349 352 350 346 344 347 349 349 350 351 350 350 350 349 347 345 345 347 347 347 344 340 339 338 338 337 335 333 332 332 332 331 330 327 324 322 321 321 321 320 319
325 325 324 323 322 323 325 325 325 325 327 325 320 319 322 322 321 322 322 319 323 335 341 341 344 342 341 344 347 348 350 349 349 349 349 349 349 347 346 347 348 347 345 341 339 338 338 336 333 332 331 332 332 331 330 327 325 323 322 321 320 320 320
328 324 325 324 322 324 325 324 324 324 325 325 324 327 329 324 321 322 321 319 324 334 336 335 340 340 340 341 344 347 348 347 347 347 348 349 349 348 348 347 348 347 345 341 338 338 337 334 332 331 331 332 332 331 329 327 325 323 322 321 321 320 320
325 323 325 324 323 326 327 326 325 324 326 326 325 330 331 325 324 325 321 319 323 336 340 338 339 340 341 340 341 344 346 346 345 345 346 348 348 349 348 347 348 347 344 340 338 338 336 332 330 331 331 332 331 329 328 327 325 324 322 321 321 321 320
320 321 323 324 325 327 327 327 325 323 326 326 326 329 326 323 326 326 322 321 326 338 343 338 338 341 344 344 341 340 343 343 343 344 344 345 347 347 347 347 348 347 343 339 338 337 334 331 330 331 331 332 330 328 328 327 326 324 323 322 321 321 321
324 328 331 330 331 328 326 326 325 323 325 327 330 329 324 325 326 323 327 332 328 332 338 337 341 344 346 348 344 341 341 341 341 342 342 343 344 345 346 346 346 345 341 338 337 336 333 331 330 331 332 331 328 328 328 328 326 325 323 322 322 321 321
331 334 334 332 332 329 327 327 325 324 326 326 327 327 328 332 325 319 336 347 332 327 335 338 342 346 348 349 346 342 342 339 339 341 340 341 342 342 343 344 345 343 340 338 337 334 332 330 331 332 331 329 328 329 328 327 326 325 323 322 322 322 322
328 327 327 329 332 329 329 330 326 325 326 326 327 329 333 334 326 324 343 351 337 331 334 334 336 341 342 343 341 339 340 339 338 339 339 339 340 340 341 342 343 341 339 338 336 333 331 330 331 332 330 327 328 329 328 326 324 323 323 322 322 322 322
327 325 325 328 329 327 327 328 327 326 326 325 327 330 331 331 329 330 338 341 337 333 331 331 333 332 331 331 331 332 336 338 337 338 339 339 339 339 341 341 341 340 339 338 334 332 331 331 332 330 328 327 329 328 326 324 323 323 323 322 322 322 322
326 326 327 326 326 327 327 326 326 325 325 325 325 327 328 328 330 333 333 333 334 333 332 332 330 328 329 329 331 333 336 338 337 337 338 339 339 339 340 341 341 340 339 337 333 331 330 331 331 329 327 328 329 327 324 323 323 323 322 322 322 322 322
323 326 327 326 326 327 325 326 328 325 324 326 326 327 330 329 332 337 334 329 331 334 336 335 332 331 332 333 335 336 336 336 337 337 338 338 338 339 340 340 341 340 338 336 332 330 330 331 330 328 328 329 327 325 323 322 323 323 322 322 323 323 323
323 326 327 326 326 325 323 327 330 329 328 329 327 328 330 331 333 334 330 327 332 340 340 338 337 337 338 337 336 336 335 335 335 336 337 337 338 339 340 341 341 340 338 334 331 330 330 330 328 327 328 328 325 323 322 322 323 323 323 323 323 323 324
323 326 328 326 324 323 324 330 332 330 329 329 328 329 333 334 332 332 331 333 339 341 338 338 338 338 337 335 333 333 333 332 333 335 336 337 337 339 340 341 340 339 336 333 330 330 330 329 328 328 328 325 323 322 322 322 323 324 324 324 323 323 323
326 328 328 325 322 324 331 333 330 327 328 329 331 334 336 335 333 335 335 334 338 341 337 335 334 332 331 331 330 331 331 330 332 333 335 336 337 338 340 340 339 338 335 332 330 330 330 328 328 328 326 323 322 322 322 322 323 323 324 324 323 322 322
327 327 325 324 325 330 334 332 327 326 328 329 329 329 334 337 334 334 335 334 337 340 335 332 331 330 330 331 332 332 331 331 331 332 333 335 336 338 340 340 338 336 333 331 330 329 328 328 328 327 325 323 322 322 322 322 323 323 324 324 323 322 322
328 327 325 326 327 329 331 333 333 331 331 334 332 327 333 343 339 333 335 339 340 339 335 333 331 330 332 336 335 333 332 332 332 331 333 334 335 338 339 338 336 334 332 330 330 329 328 328 327 326 325 323 322 322 322 322 323 324 325 324 323 323 323
328 327 325 326 326 325 329 338 340 333 329 335 337 329 330 342 340 332 335 340 341 340 337 333 331 333 336 338 337 334 332 332 332 332 333 334 335 338 338 337 334 332 331 330 330 329 328 328 327 326 325 323 322 322 322 322 323 325 325 324 324 324 324
327 326 324 325 326 326 335 343 339 328 324 330 334 326 326 337 337 329 331 338 339 340 338 334 335 337 335 334 336 334 332 333 332 332 332 334 336 337 337 335 332 331 331 330 329 329 329 328 327 327 325 324 323 322 322 322 323 325 325 325 325 324 324
326 326 324 326 326 329 339 341 332 324 324 329 329 322 324 335 334 327 330 335 336 336 335 335 337 338 335 335 335 333 332 333 332 332 333 334 336 336 334 333 331 331 331 330 329 329 328 328 328 327 326 325 324 323 323 323 324 325 325 325 325 324 323
326 325 324 324 326 331 336 334 327 324 325 327 325 323 327 331 329 326 329 331 331 332 332 334 338 338 335 334 333 332 332 333 332 332 333 333 334 333 333 332 331 331 330 329 329 329 328 328 328 327 326 326 324 325 325 325 324 326 326 326 325 324 323
325 326 325 323 325 329 330 327 325 324 325 326 326 328 329 328 326 328 329 329 330 331 331 333 335 334 332 332 333 333 332 332 332 332 332 333 333 332 332 332 331 331 331 329 329 328 329 329 328 327 327 326 325 326 327 326 326 327 328 327 325 323 321
325 325 324 321 323 326 326 326 327 326 327 329 329 329 328 326 326 327 328 329 331 331 331 332 332 332 332 333 333 332 332 332 332 332 332 332 332 332 331 331 331 330 330 329 329 329 329 329 329 328 327 326 327 327 328 328 328 329 329 326 323 321 320
324 323 324 325 328 328 326 327 330 329 328 328 326 327 329 329 327 327 328 330 330 331 332 332 331 331 331 332 332 332 332 332 332 332 332 332 332 331 330 330 330 330 329 329 329 329 329 329 328 327 327 327 328 328 329 330 330 329 328 324 320 319 319
326 325 327 329 330 327 325 326 328 328 327 326 325 326 328 328 328 328 329 329 330 332 332 331 331 330 330 330 331 331 330 331 331 331 332 331 331 330 329 329 329 329 329 329 329 329 329 329 329 328 327 328 328 329 330 330 330 329 326 321 319 319 320
328 327 327 328 327 326 325 325 326 326 327 327 326 326 327 328 328 329 330 330 332 332 332 332 331 331 329 329 330 330 330 330 330 330 330 329 329 328 328 328 328 328 329 329 329 329 329 329 329 328 328 328 329 329 329 329 329 327 324 320 319 320 321
325 326 329 329 326 326 326 325 326 327 328 328 328 327 328 328 328 330 330 331 332 332 332 332 331 330 330 329 329 329 329 329 328 328 328 327 327 327 327 327 327 327 328 329 329 330 330 330 329 328 328 329 328 328 328 328 327 324 321 320 320 321 321
325 327 330 327 324 325 325 325 325 326 327 328 329 328 328 329 330 330 331 331 331 332 332 331 330 329 329 328 328 328 328 327 327 326 326 326 326 326 326 326 326 327 327 327 328 328 329 329 330 329 329 329 329 328 327 326 324 322 320 320 321 321 321
326 327 327 325 324 326 326 324 324 324 325 328 329 327 328 329 330 330 330 330 330 331 331 330 329 329 328 327 327 328 327 326 325 324 324 324 324 324 325 325 324 324 325 325 325 326 327 328 329 329 329 330 329 328 326 324 322 321 322 322 322 322 322
326 327 326 323 323 325 324 322 323 323 324 327 328 327 328 328 329 328 328 329 329 330 329 329 328 327 326 325 325 325 324 323 323 323 322 323 322 323 323 323 322 323 323 324 324 325 326 327 327 328 329 330 329 327 325 323 323 322 323 323 322 322 322
323 324 324 322 322 324 322 320 322 323 324 325 328 328 327 328 328 327 327 328 328 328 326 325 325 324 324 323 322 323 323 322 322 322 322 323 323 323 322 322 323 323 323 324 324 324 325 326 326 327 328 328 328 327 324 323 324 324 324 324 323 323 323
321 322 321 320 320 321 318 316 320 324 323 324 327 327 326 327 327 326 326 327 327 326 324 323 323 323 323 323 323 323 322 322 323 322 322 322 323 323 323 323 324 323 324 323 324 324 325 326 326 327 327 328 327 327 325 324 325 325 325 325 324 324 323
319 319 318 316 316 316 314 314 320 324 324 324 325 326 326 326 326 326 326 325 325 325 324 323 323 323 323 323 322 322 322 322 322 322 322 322 322 323 324 324 323 324 324 323 323 324 324 324 325 325 325 326 326 326 325 325 325 325 325 324 323 322 321

ECMWFFLT2_850_thetae_006.txt.gz
Theta_e
329 328 329 330 327 325 326 326 323 325 329 327 321 319 322 320 317 320 323 322 324 328 332 336 339 339 342 345 345 344 345 348 351 354 357 356 356 354 353 355 355 356 354 349 342 334 331 333 332 334 336 335 333 333 331 331 330 328 324 321 320 319 320
329 328 330 329 329 328 326 322 323 328 329 328 324 321 321 320 317 319 321 320 321 321 325 334 338 336 337 343 347 346 344 347 351 355 356 358 357 353 353 354 353 354 348 341 337 334 334 334 333 335 336 334 334 332 332 331 330 328 324 321 320 319 320
327 329 327 326 327 330 327 326 328 327 321 322 324 321 320 319 317 319 320 320 320 319 323 330 334 334 333 340 348 347 345 347 350 353 356 359 357 353 353 353 353 352 343 334 335 337 338 336 334 336 336 333 334 333 331 331 330 328 324 321 320 320 320
327 328 326 323 324 327 329 328 329 328 324 323 324 322 320 319 318 318 319 319 319 322 328 330 332 335 333 337 347 349 347 347 350 353 357 359 358 354 352 353 353 349 339 334 337 339 341 339 335 336 337 336 337 335 331 330 330 328 325 322 321 320 320
325 325 325 325 325 326 326 324 325 325 326 325 324 324 322 320 318 318 318 317 319 326 334 332 332 334 334 336 344 348 349 349 350 354 356 358 357 354 351 352 351 347 341 339 340 341 343 341 336 339 340 338 339 337 332 331 331 330 328 324 321 321 321
321 324 329 331 330 330 328 326 325 324 326 323 321 321 322 321 319 318 319 317 319 329 337 333 332 335 334 337 341 344 348 349 350 354 356 357 358 355 352 351 350 347 343 342 342 343 344 341 339 342 341 338 338 338 334 334 334 335 334 332 326 320 320
325 328 331 330 329 331 330 329 328 329 328 323 319 319 321 321 321 320 321 318 321 336 343 338 340 344 343 345 346 346 347 349 352 355 356 358 358 356 353 351 350 348 345 344 345 345 343 338 340 342 340 337 337 336 335 336 336 334 335 336 332 324 320
329 328 330 330 328 330 328 329 330 329 329 326 325 325 325 323 321 320 320 318 322 338 347 344 347 347 345 345 347 348 348 349 353 354 355 358 358 357 355 352 352 350 348 347 344 342 339 336 338 340 335 333 334 334 335 337 336 334 333 334 334 328 321
323 324 326 326 326 329 327 329 331 328 330 330 328 331 328 323 321 321 320 317 323 337 344 343 344 343 341 339 343 347 349 349 352 354 356 357 358 358 357 353 352 352 350 345 340 339 338 336 338 338 334 331 331 331 334 335 335 336 335 334 333 329 323
319 319 320 321 325 327 327 329 331 329 330 329 328 327 323 321 324 326 321 319 324 336 341 339 339 339 338 339 339 343 347 350 352 356 357 359 359 359 357 354 353 352 349 345 341 340 339 338 338 337 333 330 330 330 332 334 334 334 333 333 333 328 325
320 321 324 328 329 327 323 327 329 329 330 329 329 325 321 324 328 325 324 326 326 331 336 336 336 337 335 335 338 341 347 350 351 354 356 358 359 358 357 355 353 352 350 347 345 342 340 339 338 337 332 329 330 331 330 331 331 330 330 330 328 325 324
327 329 333 333 330 327 325 326 328 330 329 330 329 325 327 332 326 321 330 337 328 329 335 335 335 336 335 335 338 339 345 349 349 352 354 355 357 357 356 354 352 352 350 348 346 345 342 339 337 336 331 329 330 330 329 330 329 328 329 327 325 323 321
332 333 333 331 330 329 328 328 329 329 329 329 328 327 334 337 325 323 337 341 332 333 335 333 334 335 333 335 337 338 341 346 348 351 352 353 354 355 355 354 352 352 350 348 348 346 343 339 337 334 330 330 330 328 327 328 328 328 328 325 323 322 321
330 332 332 331 330 329 329 329 329 330 330 329 329 328 335 337 330 331 339 339 337 337 335 335 335 333 333 337 338 337 338 341 346 349 351 352 352 352 353 353 353 352 350 348 348 346 342 338 336 332 329 329 328 326 326 327 325 325 325 323 323 322 321
328 331 331 331 331 329 328 329 330 330 329 329 330 331 334 334 333 334 337 335 335 335 335 338 335 332 336 339 338 337 339 339 343 346 348 350 351 350 351 352 352 352 350 349 349 346 342 338 335 331 330 329 326 327 331 331 327 324 322 322 323 321 322
324 329 330 329 330 330 326 327 330 330 329 328 330 332 334 333 333 334 333 329 331 333 335 336 335 334 337 338 337 340 341 341 342 344 347 349 349 350 350 351 351 351 350 349 348 345 340 337 333 330 328 327 325 326 330 328 328 327 325 322 322 322 322
322 328 330 328 328 325 323 327 330 330 331 331 330 333 335 334 333 331 329 327 330 333 333 333 332 333 334 336 340 341 341 343 344 344 345 348 348 349 350 349 350 349 349 349 347 343 340 336 332 329 327 325 324 325 326 323 323 326 325 322 322 322 323
322 328 330 328 324 321 323 332 334 332 332 330 331 332 334 335 333 331 329 331 332 332 332 332 332 333 336 338 342 342 340 340 343 345 345 345 348 349 348 349 349 349 350 350 345 341 338 334 331 329 327 325 324 325 324 322 321 322 322 322 322 322 323
325 329 329 323 321 324 331 336 334 333 332 332 332 332 332 332 332 332 332 332 333 333 332 331 334 338 340 339 340 342 340 338 340 343 344 345 347 348 348 348 348 349 350 348 343 339 336 332 330 328 326 326 326 326 324 322 322 321 321 322 322 322 324
327 327 323 322 325 332 336 335 333 333 334 334 332 330 332 333 332 333 334 332 332 333 330 332 338 341 341 340 340 339 337 337 339 341 343 345 345 346 347 347 349 349 347 344 341 338 334 330 329 329 327 327 328 329 327 324 323 323 322 321 322 323 324
328 323 320 325 328 331 333 333 333 333 332 333 332 328 330 333 332 333 334 333 332 332 330 335 341 342 340 340 341 340 336 333 336 338 342 343 343 345 346 347 348 346 343 341 340 335 332 330 329 329 328 328 328 329 329 327 325 324 323 322 322 322 325
328 323 321 324 324 323 329 333 335 334 333 335 333 329 329 332 332 332 332 332 333 332 333 339 343 341 338 335 338 341 337 333 333 336 340 342 342 344 345 346 345 342 340 341 338 332 330 330 329 328 328 327 327 326 327 329 330 327 325 324 324 325 328
327 325 322 322 321 323 331 334 335 334 333 334 333 327 326 330 333 331 330 331 332 330 334 343 344 338 332 331 337 338 336 334 335 335 337 340 342 342 343 343 342 340 341 340 335 331 330 330 329 329 328 327 327 325 325 329 332 330 328 328 326 327 330
325 325 322 321 323 328 334 336 333 331 332 332 330 323 323 330 333 331 330 331 331 330 337 343 342 335 332 334 339 337 334 334 335 334 334 337 339 339 340 340 340 340 339 337 332 330 330 329 329 328 327 327 328 326 326 331 333 332 332 330 327 328 331
324 325 322 321 325 332 336 333 330 331 331 330 325 323 328 332 331 330 331 331 329 332 341 341 336 335 338 337 336 335 334 333 333 333 334 335 337 337 339 338 338 339 337 334 332 330 330 329 329 328 328 328 328 326 328 331 333 333 333 330 328 329 331
324 325 324 321 325 332 333 330 330 331 328 326 326 331 336 334 332 333 333 331 329 334 340 340 336 337 339 336 333 335 335 332 332 333 333 334 334 335 337 336 336 336 336 333 332 330 329 329 329 329 328 329 329 328 327 329 331 333 332 328 327 328 328
327 325 325 323 325 331 331 330 331 330 328 331 336 338 337 334 334 335 334 333 334 336 339 341 340 340 339 336 336 337 335 332 333 333 333 334 334 333 334 334 334 335 335 333 331 331 332 333 330 329 329 328 329 330 327 326 329 331 329 326 326 328 328
327 323 325 327 330 331 330 330 333 332 332 337 338 336 335 334 334 335 335 335 337 340 342 344 342 341 341 338 338 338 334 332 333 332 332 333 333 332 334 334 335 334 333 332 331 331 334 335 332 329 329 329 329 329 329 327 327 328 327 326 328 330 329
330 327 329 332 332 333 331 330 332 332 332 333 333 333 334 332 332 334 335 335 338 340 341 342 342 340 340 340 340 339 336 333 332 332 332 332 332 332 334 334 334 332 332 332 332 331 332 333 331 329 329 329 329 330 329 329 328 327 327 328 330 330 328
331 331 332 332 331 331 331 330 331 331 330 331 332 332 334 334 333 335 335 335 339 340 338 339 340 339 340 341 341 338 335 333 332 332 332 332 333 332 332 332 331 330 331 331 330 330 330 330 329 330 329 329 329 330 330 330 329 329 330 330 330 328 325
328 329 332 332 329 329 331 330 330 329 329 330 331 332 335 335 334 337 337 336 337 338 338 339 339 338 340 339 334 332 332 331 331 332 332 332 332 331 331 330 328 328 329 329 329 330 331 330 329 330 330 330 330 330 332 332 332 330 330 329 328 325 323
328 329 332 330 328 329 330 329 328 327 326 328 330 331 334 335 333 333 334 334 335 336 338 339 339 338 338 335 331 332 332 330 330 331 330 330 329 328 328 328 327 327 328 328 328 329 330 329 328 328 329 332 335 335 335 334 333 331 329 326 325 324 323
329 329 330 329 327 329 330 329 326 325 324 326 329 329 331 333 334 332 332 333 335 337 338 339 339 338 337 334 332 333 333 331 330 329 328 327 327 327 326 326 326 326 326 326 325 325 325 325 326 326 327 330 334 336 335 333 331 330 327 324 322 323 324
327 328 329 328 327 328 330 328 325 323 323 326 330 330 331 333 334 335 334 333 334 336 337 338 338 336 336 334 333 333 334 333 330 327 326 326 325 325 325 325 324 324 323 323 323 323 323 324 325 325 326 327 330 333 334 332 329 328 325 324 324 326 327
327 327 327 327 327 327 327 326 323 322 325 327 327 328 331 332 334 336 338 335 332 333 335 335 336 335 332 330 332 333 333 330 327 325 324 324 323 323 323 323 323 323 322 322 322 322 323 324 324 324 326 326 328 331 332 330 327 326 325 325 326 328 328
325 324 324 324 324 324 323 322 321 324 327 327 326 326 328 330 332 334 337 337 332 330 331 333 336 335 330 328 331 332 329 326 325 323 323 322 322 322 323 322 322 322 322 323 323 323 323 324 324 325 327 327 328 330 331 329 328 327 326 326 328 328 328
322 322 322 321 321 321 322 322 323 326 327 325 324 324 325 327 329 331 333 337 334 330 329 331 332 333 330 328 330 329 325 323 323 322 322 323 322 322 322 323 323 324 323 323 323 323 323 324 323 324 326 327 326 327 328 328 327 327 326 327 328 327 327

ECMWFFLT2_850_thetae_009.txt.gz
Theta_e
331 330 330 332 329 325 327 326 323 325 330 329 321 319 322 320 318 320 321 322 327 329 332 336 336 335 335 336 336 337 339 340 342 347 351 351 349 349 352 354 353 352 357 360 360 358 355 347 343 346 342 334 331 330 328 329 332 332 332 329 326 326 329
331 331 331 331 331 330 326 323 325 330 331 330 325 320 321 320 318 320 320 320 322 323 325 332 336 334 334 336 336 336 339 344 346 347 349 351 350 351 351 354 354 354 357 359 360 358 353 347 345 345 340 332 331 330 329 330 332 332 331 330 331 329 329
330 332 329 328 329 332 330 327 331 329 323 322 323 320 320 320 319 320 320 320 321 320 324 332 334 334 334 335 335 334 335 341 345 346 348 350 350 350 352 354 354 355 356 359 360 357 352 346 345 345 338 332 333 333 332 334 336 334 332 333 335 332 329
330 330 327 323 325 329 331 330 331 329 325 323 323 321 320 320 319 320 319 319 320 323 329 334 335 335 335 334 336 336 334 336 341 344 348 351 351 352 353 355 354 355 356 357 358 355 349 346 346 345 340 337 339 339 336 336 338 336 333 333 333 331 331
327 325 326 325 325 327 327 325 325 327 326 325 325 325 323 321 319 319 319 318 320 328 334 334 334 335 333 334 335 336 335 335 337 342 347 350 353 353 353 355 356 357 357 357 355 352 346 347 347 346 344 342 341 343 340 338 339 338 336 336 335 335 336
323 325 329 329 329 329 328 325 324 325 326 323 322 322 323 322 319 319 319 318 321 330 335 334 334 334 334 334 335 336 336 335 334 340 345 351 356 355 355 356 354 354 356 356 352 348 345 347 347 345 345 343 341 343 343 340 340 340 340 341 341 340 337
327 329 331 329 330 331 331 330 328 329 329 324 319 318 320 321 321 321 320 318 322 333 335 333 334 334 334 334 334 335 336 335 336 339 344 350 356 357 356 354 351 350 352 352 348 345 345 347 347 345 344 343 341 342 343 341 340 340 340 341 343 341 336
330 330 331 331 330 330 330 330 331 331 328 328 325 324 325 323 321 321 321 317 324 335 337 335 335 336 334 335 336 335 335 334 336 339 346 352 358 359 355 351 349 348 349 348 345 344 344 347 347 345 344 344 341 341 341 340 339 338 337 337 340 341 339
323 325 327 327 328 329 328 329 331 330 331 330 329 329 328 325 321 323 321 318 325 338 342 338 336 337 335 335 335 334 335 335 335 341 348 355 361 361 357 351 348 348 348 346 344 345 346 348 348 346 344 344 342 341 339 338 338 339 338 337 337 339 341
318 319 321 322 324 327 328 329 330 331 331 330 328 326 324 321 322 324 322 320 326 339 342 337 336 337 335 335 334 335 335 336 336 341 348 357 363 363 360 355 350 349 349 347 345 345 347 350 350 347 346 344 343 341 339 336 337 338 338 338 338 339 339
321 321 325 329 328 326 324 326 328 329 331 331 330 324 321 322 323 322 323 325 327 334 339 337 336 336 336 336 336 334 335 335 336 342 348 357 363 363 362 358 353 353 351 349 348 348 348 351 350 347 347 346 344 342 338 335 336 336 337 339 338 337 335
327 329 331 332 331 327 325 325 327 328 330 330 328 323 324 328 323 319 328 333 327 329 335 335 334 336 336 336 335 335 335 335 336 340 349 356 361 363 363 360 356 356 354 352 353 352 353 353 350 348 349 347 346 343 339 336 336 336 337 339 338 334 330
330 332 331 330 331 329 329 328 328 328 329 329 328 326 329 332 324 322 333 339 331 332 335 334 334 335 335 336 336 334 334 336 335 338 346 354 358 362 364 362 359 358 357 357 357 356 356 353 348 348 348 348 348 343 337 336 337 337 339 340 338 332 328
328 330 330 329 331 329 329 329 329 329 330 328 329 329 330 332 329 329 337 338 334 335 336 334 334 336 336 335 335 334 333 334 334 335 342 350 353 357 362 364 362 361 360 361 360 358 356 351 346 346 347 349 347 336 330 334 338 338 341 339 332 325 326
325 329 330 328 330 329 326 327 329 331 330 329 330 330 330 331 331 332 335 333 333 337 337 335 335 338 338 337 335 334 333 332 332 335 340 346 349 353 359 362 363 362 361 363 361 359 356 349 344 345 349 349 341 330 328 335 338 339 341 338 327 319 324
322 328 329 327 330 329 324 325 328 328 328 328 329 331 331 331 330 332 332 329 331 336 336 335 336 336 337 336 333 335 335 334 336 339 342 343 346 349 354 359 363 362 362 363 362 360 356 350 345 347 349 345 336 331 333 337 339 340 341 335 325 320 325
322 328 328 328 328 325 321 324 328 330 330 330 330 331 333 333 333 332 330 329 334 336 334 334 335 335 334 334 333 334 337 338 339 341 343 343 343 348 353 357 361 362 362 362 362 360 357 353 349 349 347 342 335 334 337 338 339 342 341 334 325 323 327
322 326 328 327 324 320 322 329 331 331 331 331 330 330 331 335 334 334 333 333 335 334 333 334 334 333 333 333 334 336 337 338 340 341 344 344 344 348 352 354 358 360 360 361 360 360 358 355 352 350 346 340 336 336 338 337 336 338 337 332 327 327 329
323 325 326 324 321 322 328 334 333 333 332 331 332 332 333 333 335 335 335 334 333 334 334 334 333 333 333 332 335 337 337 339 342 342 343 345 347 349 352 354 356 357 358 359 358 358 357 355 352 349 343 339 338 337 336 335 333 332 330 326 325 327 330
325 324 324 324 326 332 336 337 335 333 335 334 332 330 332 332 333 335 335 333 334 335 333 333 332 332 334 334 335 336 337 340 343 342 343 346 348 350 353 354 354 356 358 358 357 356 356 352 348 344 340 339 339 335 333 333 334 331 326 322 323 326 328
326 322 321 327 331 333 336 337 336 335 334 334 333 329 331 335 334 334 335 334 335 334 333 332 331 333 335 334 332 333 338 342 343 343 344 345 347 350 351 353 354 355 355 356 356 355 353 348 344 342 339 337 335 334 335 336 336 334 328 324 323 324 325
327 324 321 325 326 325 330 336 337 334 333 334 334 331 331 335 334 332 335 335 334 335 333 331 333 334 334 333 333 336 340 342 343 343 344 345 348 350 351 352 354 354 355 356 356 353 350 345 342 340 338 334 329 332 337 338 337 336 335 330 327 326 328
326 323 322 323 323 324 331 337 337 334 333 334 335 330 328 332 333 332 334 335 334 333 333 332 334 335 332 331 334 338 338 340 341 343 344 346 347 350 351 352 353 354 355 356 354 350 346 343 341 338 335 334 332 332 335 338 338 338 338 336 334 332 333
326 325 322 323 325 328 334 337 334 334 335 335 333 325 325 330 333 333 333 334 334 332 333 333 333 334 333 333 335 337 337 339 341 344 347 347 347 349 350 352 355 355 354 354 352 348 344 341 339 335 331 334 337 337 336 338 338 338 338 338 337 337 337
324 324 322 323 327 333 336 334 334 335 335 332 327 325 330 332 332 333 333 333 332 331 332 333 333 333 333 333 337 337 336 341 344 346 349 349 348 349 350 352 352 350 352 353 349 345 343 340 335 333 333 336 338 339 340 341 340 338 338 338 337 337 337
323 324 323 321 325 335 337 332 335 334 330 328 328 333 338 335 332 334 333 333 332 332 332 332 333 333 332 334 336 334 336 343 345 346 348 348 349 350 350 347 345 346 349 351 346 343 343 339 334 334 337 340 342 341 342 341 339 338 339 338 337 338 337
325 323 322 321 326 335 337 332 334 334 330 333 337 339 338 334 333 335 335 333 334 334 333 334 333 332 332 334 336 334 338 345 346 345 347 348 348 348 345 342 344 347 348 348 345 344 343 340 338 339 340 343 345 345 345 342 340 340 339 338 337 337 337
326 321 323 328 332 335 334 333 336 336 333 337 339 337 335 334 334 334 332 333 335 335 335 336 336 334 334 336 339 339 342 346 347 347 348 348 348 347 342 342 347 348 347 347 346 343 340 338 338 340 342 345 347 346 346 345 344 343 341 339 338 338 337
332 330 333 336 336 335 334 334 337 336 334 334 335 335 336 336 335 335 334 334 334 335 335 337 338 337 335 337 341 342 343 345 346 347 348 347 345 343 341 343 344 344 345 347 345 342 341 340 341 343 345 346 348 347 345 345 346 345 342 340 339 338 336
336 335 336 336 334 334 333 333 334 333 332 333 334 335 337 337 337 338 338 337 338 338 338 338 339 338 336 337 341 341 342 344 345 346 346 345 341 340 343 343 342 341 342 344 344 345 346 344 342 342 342 341 342 342 342 343 344 344 342 342 342 340 337
333 333 334 335 333 333 333 333 332 330 330 332 333 335 335 336 336 337 338 339 340 340 339 340 340 338 337 337 340 341 343 346 347 347 346 344 343 346 345 342 339 340 341 341 341 342 342 342 342 341 341 341 339 336 336 339 341 340 339 340 341 340 337
333 333 335 334 332 332 333 332 330 329 330 331 332 333 333 334 334 336 338 339 338 339 340 341 342 340 338 338 342 343 344 346 347 346 345 345 345 345 341 336 334 337 337 338 340 339 339 341 341 337 336 338 337 337 338 339 340 340 338 338 339 339 336
333 333 335 334 332 332 332 330 329 329 328 330 331 330 331 333 334 335 337 338 338 339 339 339 341 341 339 340 342 340 341 344 346 346 346 344 341 338 335 332 331 332 332 334 337 336 334 333 331 327 326 326 329 334 337 337 337 339 338 338 337 335 334
330 332 335 334 333 333 332 330 328 328 329 331 331 329 329 331 331 333 336 337 338 339 339 340 341 340 340 341 339 337 338 342 344 343 342 339 335 332 330 329 329 328 327 328 329 327 326 324 323 322 323 322 323 328 332 335 337 337 337 336 334 332 332
330 331 331 331 331 332 331 329 327 328 330 331 330 328 328 328 328 330 333 335 338 340 339 338 338 339 340 341 336 335 339 342 340 338 337 334 332 331 329 327 326 326 325 324 324 323 323 323 323 323 326 326 326 328 331 334 335 335 335 335 333 330 330
330 328 327 327 328 329 328 326 326 328 330 330 329 328 328 327 327 329 330 334 337 339 338 338 336 338 340 339 334 336 340 340 338 338 337 336 335 336 335 330 325 323 323 323 322 321 322 323 323 325 330 332 329 328 332 333 333 334 335 334 332 331 331
327 326 325 324 325 325 325 325 325 327 328 328 327 327 327 327 327 328 330 332 335 336 337 336 334 334 336 336 334 336 340 340 337 336 337 336 335 335 337 333 326 323 322 322 321 322 323 324 325 326 330 332 329 326 329 332 332 333 334 334 333 332 331

ECMWFFLT2_850_thetae_015.txt.gz
Theta_e
331 330 331 331 329 327 330 330 327 329 334 333 328 326 326 324 324 326 324 325 332 334 340 344 341 344 345 341 343 342 342 344 344 344 346 345 346 347 346 346 345 345 345 345 346 346 347 350 352 352 352 352 350 348 341 328 323 324 323 321 321 321 320
331 331 330 330 330 331 329 325 327 332 330 330 329 325 325 324 321 324 323 323 327 327 333 343 341 341 342 342 346 344 342 344 344 344 345 344 346 347 345 346 346 346 346 345 345 346 347 349 350 351 351 352 351 349 341 328 323 324 322 321 321 321 320
330 331 329 328 330 332 330 328 330 330 324 324 325 323 325 327 322 324 325 323 326 328 332 340 339 340 342 344 349 349 344 345 345 344 344 343 345 347 346 347 346 346 347 346 347 348 350 351 351 351 352 353 353 351 342 328 323 325 322 321 321 321 321
331 330 328 324 327 331 331 330 331 330 327 327 327 324 329 330 323 324 327 325 329 337 340 341 340 341 344 344 348 350 345 345 346 345 345 344 345 347 347 347 347 347 347 347 348 349 350 352 352 352 353 353 354 352 344 330 324 325 322 321 321 321 321
327 327 327 326 327 330 329 326 325 327 327 329 330 327 327 330 326 324 325 325 332 345 348 346 344 342 344 344 348 348 343 343 346 345 345 345 345 347 347 347 347 346 347 349 349 349 350 352 353 354 354 354 354 352 346 334 326 325 323 321 322 322 321
323 325 329 331 330 329 329 327 325 326 327 326 326 326 324 325 328 328 328 326 331 343 349 348 345 343 342 342 343 342 338 340 345 344 343 344 345 346 347 346 347 347 347 349 349 351 352 353 355 355 356 355 353 351 347 337 329 326 323 321 322 322 321
327 329 330 330 330 331 330 330 330 329 329 324 323 326 326 324 326 329 331 329 331 341 354 352 346 342 339 337 337 336 335 339 343 343 342 344 345 347 347 346 346 346 346 347 347 350 351 353 356 356 356 355 352 350 347 340 331 327 324 322 322 322 322
329 331 333 330 331 333 328 329 331 329 329 326 328 338 337 328 325 325 328 328 330 341 354 347 339 337 335 334 336 337 338 339 340 340 341 343 343 345 347 348 347 345 345 346 347 350 353 354 356 357 356 354 352 349 347 343 334 328 325 324 323 324 325
325 324 328 327 328 329 327 330 331 329 332 329 328 338 338 330 327 329 331 329 332 343 351 343 339 341 338 335 333 335 337 336 336 337 337 340 343 344 346 347 347 347 347 348 348 349 353 355 357 358 357 354 351 349 347 345 337 330 328 325 323 327 329
324 326 329 330 329 328 328 331 329 330 332 329 328 330 328 328 331 332 332 332 337 348 350 345 346 347 344 340 334 334 337 335 334 336 334 336 343 347 347 346 346 347 348 349 350 349 351 354 356 357 356 354 351 349 348 346 340 335 334 329 326 331 334
333 339 343 341 335 328 325 327 328 331 330 329 333 326 323 334 338 333 335 338 337 343 347 346 346 346 350 350 339 335 338 335 335 337 335 337 342 346 346 344 345 348 349 350 352 352 352 354 356 356 355 353 351 349 348 347 343 340 338 334 332 336 338
341 346 341 333 333 329 326 326 326 329 330 329 331 326 332 346 336 327 339 345 336 337 343 347 347 347 353 353 341 336 337 336 336 338 339 340 343 346 348 346 345 347 350 352 353 354 354 355 356 356 355 352 351 350 348 347 345 342 340 338 339 341 337
338 338 331 329 333 330 329 330 327 328 330 328 327 330 342 351 336 330 342 347 340 339 340 345 348 347 347 345 340 336 336 335 336 336 340 343 344 345 347 347 345 344 348 353 354 354 355 356 356 356 354 351 350 350 348 346 345 343 341 342 343 340 333
331 331 330 330 331 328 329 330 329 330 331 329 329 331 336 344 344 345 348 347 347 344 339 341 344 341 340 338 336 336 336 336 336 335 338 343 344 345 345 345 345 344 345 349 353 356 356 356 356 356 354 352 349 348 347 346 345 343 342 343 342 337 330
329 331 331 329 329 329 327 327 331 332 331 331 331 330 331 334 338 346 350 347 348 343 338 341 340 338 339 338 336 337 336 335 335 335 335 337 340 344 345 346 346 345 344 346 351 356 357 356 356 355 354 352 349 348 346 345 344 344 343 342 340 335 331
326 329 330 328 328 328 324 324 330 330 329 331 330 331 335 332 332 343 349 344 344 345 345 345 342 341 342 340 339 339 337 337 337 338 338 337 338 340 343 347 348 346 346 349 351 354 356 356 356 355 354 352 350 347 345 344 344 342 341 340 338 335 332
325 328 329 327 326 325 323 325 329 331 332 332 331 333 337 337 338 346 346 342 345 351 350 348 348 348 344 340 339 337 336 336 336 336 337 337 337 337 338 344 348 347 347 348 349 350 352 354 355 355 354 351 348 345 343 343 343 341 339 339 338 336 334
325 330 332 329 324 322 327 334 335 335 334 333 332 333 337 341 344 346 344 343 346 348 348 350 349 345 341 337 334 334 334 333 333 334 335 336 337 336 335 338 343 347 348 347 348 350 351 351 353 354 353 351 348 345 343 342 342 341 339 338 336 335 336
329 334 334 327 323 326 336 341 339 335 335 336 337 338 341 342 345 346 344 343 346 346 343 343 341 336 335 334 333 334 334 333 334 335 335 337 336 336 336 336 339 344 347 348 351 352 352 352 353 353 352 351 349 346 344 342 341 339 338 337 336 335 336
331 330 328 326 329 338 343 340 338 338 340 343 341 342 346 345 345 350 348 343 347 345 337 335 337 334 333 334 333 333 334 334 334 334 334 334 334 335 336 337 339 342 345 348 350 352 354 354 353 352 351 351 350 348 344 340 338 337 337 337 335 336 336
334 327 327 330 333 337 339 339 341 338 338 343 341 337 343 348 346 350 353 350 350 347 338 334 334 334 337 340 337 334 334 335 334 333 334 334 335 336 338 340 342 343 345 349 351 352 354 354 352 352 351 350 350 347 342 338 335 336 338 337 335 336 337
341 331 328 331 327 326 335 345 348 339 333 340 342 338 343 351 345 343 351 355 353 349 343 335 331 338 348 347 339 335 336 336 334 335 335 335 337 339 340 343 346 346 350 355 356 355 355 355 353 352 351 351 350 348 345 342 339 338 339 336 335 337 337
337 329 328 329 325 328 343 349 344 335 331 338 342 339 342 350 344 337 343 350 348 344 341 336 338 349 354 347 338 335 337 336 336 337 337 338 341 342 342 343 345 348 354 359 360 360 358 356 356 354 352 351 350 349 349 346 342 341 340 337 336 337 336
334 331 330 328 328 338 349 344 336 335 335 338 339 335 338 345 342 337 337 341 342 338 334 336 346 353 351 345 340 334 333 336 338 339 339 340 342 343 342 340 339 344 353 359 361 362 360 359 358 357 356 354 351 350 349 347 344 342 341 339 338 338 337
331 331 329 326 331 345 349 338 334 335 333 333 336 337 342 341 339 337 336 337 338 335 332 337 344 344 339 338 337 333 331 335 337 338 338 339 340 340 340 337 334 338 349 357 360 360 360 360 360 358 358 356 353 351 349 347 345 344 341 339 338 339 341
332 333 333 331 335 344 342 335 334 337 340 343 344 346 343 337 336 337 336 336 337 334 333 335 337 336 334 335 335 334 333 334 336 339 339 339 340 339 337 340 341 344 351 357 359 360 360 359 359 358 357 354 351 350 349 347 345 343 340 339 339 340 342
339 337 337 336 340 346 341 338 343 348 352 354 350 344 338 336 338 339 337 338 339 336 335 336 335 335 335 335 335 336 336 337 339 340 338 338 339 337 336 339 342 348 354 357 357 357 359 359 357 355 351 347 345 345 345 343 341 340 339 339 340 340 341
344 340 340 341 345 347 340 340 346 347 347 346 342 338 338 337 337 339 338 339 338 335 335 336 335 335 336 336 337 337 337 338 340 340 338 338 338 336 335 334 337 346 354 354 350 350 353 355 353 347 344 342 341 341 342 342 340 341 341 342 342 342 342
346 347 346 343 342 341 336 338 340 339 338 339 337 337 337 336 336 338 337 336 336 335 335 334 333 335 336 335 336 337 336 337 338 341 342 340 339 338 339 339 342 350 352 347 342 344 347 348 346 343 342 343 342 342 344 344 343 343 343 343 344 343 342
347 345 343 340 338 337 334 335 336 334 334 335 335 335 335 335 336 337 335 335 335 336 336 336 336 337 336 336 337 337 338 337 337 341 344 342 340 340 340 343 347 349 347 342 341 343 344 343 342 342 343 344 345 344 344 344 344 344 344 345 346 344 343
348 347 344 341 338 336 333 333 334 332 332 332 332 334 334 333 334 335 335 335 336 336 338 338 338 337 338 340 340 338 338 338 337 341 345 344 341 341 340 342 345 344 341 340 340 342 343 343 342 343 343 342 341 341 342 342 343 342 341 340 339 338 338
348 348 341 336 334 333 332 333 334 331 331 331 331 331 331 331 332 333 333 334 335 336 338 338 338 338 337 339 339 337 337 338 337 340 344 343 342 342 341 341 342 341 339 338 338 341 344 345 341 341 341 340 338 338 339 338 336 333 331 329 330 331 331
344 347 343 338 338 336 331 332 334 332 331 331 331 330 330 330 330 330 331 332 331 333 337 339 339 340 339 338 339 339 338 339 340 342 343 342 341 341 340 341 341 340 339 338 337 341 344 344 341 340 341 339 336 335 334 332 329 328 327 327 328 328 327
345 348 347 343 343 342 333 329 332 332 331 331 330 330 330 329 328 328 329 329 328 329 332 335 338 340 340 339 340 341 340 340 341 342 342 342 341 340 338 340 341 340 339 338 338 340 341 343 342 339 337 335 334 332 330 330 329 328 329 328 327 325 324
343 340 337 335 338 338 331 327 331 332 331 330 330 329 328 328 327 327 326 327 327 327 328 330 332 337 339 338 338 342 341 338 337 338 340 341 340 338 336 337 339 339 336 335 337 339 339 338 337 335 332 332 330 328 327 329 330 328 326 325 325 325 327
330 328 327 327 329 330 326 326 330 330 330 329 328 327 327 326 326 325 325 326 325 325 326 327 327 331 336 337 336 339 341 338 336 338 340 338 338 339 339 338 338 338 335 334 337 339 338 335 333 330 328 328 328 325 324 325 325 322 320 321 322 324 328
323 323 323 322 323 324 324 326 327 327 327 327 326 325 325 325 325 324 324 324 323 324 325 326 325 327 333 336 335 336 339 339 336 338 339 337 339 344 347 345 341 339 338 336 337 338 334 330 327 326 325 326 326 323 322 322 320 318 318 318 319 323 329

ECMWFFLT2_850_thetae_021.txt.gz
Theta_e
326 325 328 328 326 327 327 326 325 326 331 332 325 324 330 327 322 327 329 329 337 336 337 351 350 340 342 343 341 340 339 340 341 341 343 344 346 347 349 350 350 351 352 352 352 350 350 349 347 345 342 340 337 334 332 331 328 327 327 325 325 326 326
326 324 325 327 326 330 330 322 324 330 327 332 334 326 327 325 324 330 328 324 329 329 336 352 351 345 348 347 343 339 339 340 341 342 342 343 345 346 347 350 350 350 352 351 352 351 349 349 346 342 339 338 337 333 329 328 327 326 325 325 326 326 326
327 326 324 324 325 326 327 324 328 328 323 326 331 326 325 325 324 328 328 329 331 332 342 349 343 350 355 345 344 343 341 341 340 341 343 342 344 346 347 349 349 351 351 351 351 351 350 349 345 340 338 338 338 335 331 327 326 326 325 326 327 327 327
326 327 323 321 322 324 326 327 326 327 328 328 326 325 326 325 326 330 329 327 331 341 355 351 344 358 356 344 345 345 340 341 340 341 342 342 344 345 346 347 349 350 350 350 350 350 349 349 346 342 340 339 339 337 334 329 328 329 329 328 328 328 328
324 325 325 322 323 324 324 324 323 324 327 329 327 326 328 327 330 335 330 325 336 356 364 357 349 353 349 344 345 343 339 340 341 341 342 342 342 345 346 347 348 349 349 350 350 349 349 349 348 345 342 341 341 339 337 334 332 332 332 331 330 330 331
321 324 330 327 326 326 325 324 325 324 324 326 324 322 326 328 329 334 330 323 335 358 360 358 357 350 344 343 342 341 339 338 340 341 341 342 343 343 344 346 346 347 348 349 350 350 350 350 350 348 345 345 344 343 340 336 335 334 333 332 332 333 337
324 326 328 327 325 326 327 325 325 328 330 328 322 321 327 326 324 332 332 323 334 363 368 364 359 347 340 339 338 340 339 338 341 342 341 342 342 343 344 345 345 346 347 348 349 349 350 350 350 348 347 346 345 345 342 340 338 336 335 336 337 338 340
326 326 327 328 327 325 324 327 327 326 330 330 329 335 336 327 325 329 327 324 340 371 368 354 347 339 336 337 338 338 337 338 341 340 342 342 341 343 343 343 345 345 346 348 348 349 349 349 349 349 349 347 346 346 346 345 343 340 341 345 345 344 343
322 323 325 325 327 326 325 330 328 325 331 332 333 340 333 324 328 331 326 327 345 367 359 344 341 341 340 338 337 338 338 338 340 340 342 342 342 343 343 342 345 346 346 347 347 347 348 348 348 348 349 348 347 347 346 346 346 347 349 349 348 347 345
319 319 322 325 328 329 329 333 329 326 329 327 329 333 324 322 330 331 330 334 347 358 349 338 341 344 344 341 337 337 339 338 340 341 341 342 342 342 342 343 344 344 345 345 345 346 346 346 347 348 348 348 347 347 347 347 349 352 352 351 350 350 349
320 323 330 336 335 328 325 327 326 327 327 326 335 333 325 329 334 332 341 346 340 341 343 341 344 343 343 345 339 337 339 339 339 340 340 342 342 342 343 343 343 343 344 344 344 345 345 345 346 347 347 347 347 348 348 350 353 354 354 352 352 352 350
322 327 333 335 332 326 324 326 325 327 326 326 331 329 330 340 332 328 352 357 335 336 346 345 344 342 342 345 339 336 338 339 339 340 340 341 342 341 343 342 342 343 343 343 343 344 344 346 345 346 347 347 348 349 351 353 354 354 354 353 353 353 351
324 327 327 328 329 327 326 327 326 326 327 326 326 328 337 343 329 328 352 355 338 338 344 341 342 342 340 341 338 337 339 339 339 340 340 341 341 342 343 343 342 343 342 342 342 342 344 345 345 346 347 347 349 351 353 354 353 354 354 353 353 354 352
325 324 324 326 326 326 326 326 327 326 325 326 324 328 337 337 334 340 351 349 342 339 337 339 338 335 334 335 335 337 338 339 340 341 341 341 342 342 342 342 342 343 342 341 340 341 342 344 345 345 345 346 349 351 352 353 353 352 353 353 354 354 351
323 323 326 326 324 325 325 324 327 326 325 326 325 329 335 332 336 343 343 343 343 338 338 338 332 330 334 334 334 336 338 339 340 341 342 342 341 342 342 343 342 341 341 340 339 341 342 343 344 344 345 346 348 350 351 351 351 352 352 353 353 353 352
321 323 324 325 326 326 323 324 327 326 327 330 329 334 338 335 340 345 339 336 338 340 345 341 332 332 337 335 333 334 336 339 340 341 341 341 343 343 341 341 340 339 339 339 340 342 342 343 344 345 346 348 347 349 349 349 350 350 352 353 352 351 350
322 325 325 326 326 321 323 335 338 332 334 336 335 341 344 341 347 349 339 336 340 345 347 342 338 339 339 334 333 332 334 338 339 340 342 342 342 342 339 340 339 338 339 339 341 343 343 344 345 346 347 348 347 348 348 349 350 351 352 352 349 348 346
323 330 328 326 323 320 329 347 345 334 336 339 338 341 341 341 348 350 343 340 345 348 345 342 343 341 337 333 333 333 334 336 337 339 341 340 340 339 337 337 337 339 340 341 342 343 344 345 346 346 347 347 348 349 350 350 352 352 352 351 348 347 347
329 332 328 321 321 328 343 350 341 335 335 336 340 340 338 340 345 350 349 344 343 345 340 337 338 336 334 334 333 333 335 336 336 338 338 338 339 337 336 338 338 339 339 337 337 336 338 340 343 345 347 348 348 349 350 352 352 352 352 351 350 350 349
328 328 323 320 323 335 347 343 337 340 337 335 339 338 336 339 340 345 349 342 339 339 334 331 334 333 333 334 334 334 336 335 336 336 336 336 335 335 336 336 337 337 335 334 335 334 334 336 338 340 344 348 349 350 351 352 352 352 352 351 351 350 349
335 335 326 327 333 336 343 343 338 337 336 335 339 336 335 339 339 340 344 340 339 340 333 330 333 333 334 336 335 335 335 335 334 334 334 334 334 335 335 335 335 335 335 336 336 334 334 334 334 337 341 346 350 351 351 352 352 352 352 352 351 350 348
341 340 328 331 334 331 338 346 342 335 331 333 340 340 337 339 339 338 340 339 340 340 335 331 331 332 337 340 336 333 334 333 333 333 332 332 333 334 334 334 335 335 337 339 335 332 333 333 332 334 338 344 350 352 352 352 352 352 352 352 350 349 345
343 344 335 334 335 334 341 346 341 336 332 333 339 338 335 339 338 334 338 341 339 337 332 330 332 336 341 342 338 333 334 333 332 333 334 333 334 334 335 336 336 336 338 338 335 333 333 333 333 334 337 344 350 353 353 352 352 352 351 351 350 347 343
348 348 339 333 334 340 345 342 338 335 332 335 338 333 333 340 338 332 336 340 337 332 329 330 337 341 341 341 339 334 334 334 333 333 334 332 334 336 335 337 337 338 339 337 335 335 333 333 335 336 339 344 347 349 352 352 352 353 352 351 349 344 340
346 344 336 330 336 346 344 338 335 333 334 340 340 335 336 339 336 333 334 335 334 333 332 334 339 340 337 339 340 337 335 334 334 335 336 336 337 338 338 339 340 339 339 336 335 335 335 335 336 336 339 341 342 344 348 351 352 352 351 348 345 343 342
344 346 340 332 337 344 336 333 334 334 339 345 339 335 337 336 335 337 336 334 337 337 337 338 339 338 337 338 339 339 338 338 339 339 339 339 340 340 340 340 340 339 337 336 336 336 336 337 337 337 340 341 342 346 348 350 352 350 348 346 345 344 342
341 348 341 331 337 340 332 337 347 345 343 343 336 334 337 336 336 338 337 336 337 337 337 338 337 337 337 336 335 336 337 339 340 340 340 340 340 339 338 339 339 338 337 336 337 337 337 337 338 339 340 342 346 349 349 350 350 348 346 345 345 344 342
344 350 342 334 340 339 332 339 349 343 337 337 335 334 334 334 336 337 338 339 339 337 338 339 338 337 337 336 336 336 336 338 339 338 337 337 337 337 338 338 338 338 338 338 339 339 338 339 341 343 343 345 348 350 350 349 349 346 344 343 343 343 341
341 345 343 339 337 333 331 334 336 334 334 335 335 333 332 332 333 335 336 337 338 339 339 339 338 340 339 338 338 337 335 334 335 333 332 331 333 336 337 339 339 339 341 341 342 342 342 342 344 344 344 346 349 350 349 348 346 344 342 342 341 341 339
338 336 336 335 333 330 330 331 330 330 332 331 331 331 330 329 331 332 331 332 334 335 335 336 336 334 333 335 336 337 337 336 333 332 332 332 334 335 336 339 340 341 343 344 344 344 345 345 345 345 345 348 350 349 347 346 344 342 340 339 339 339 339
340 339 337 336 334 332 330 329 329 330 329 329 330 329 327 327 328 329 328 329 329 330 331 331 332 330 330 330 330 331 334 336 335 335 333 333 333 334 335 338 340 342 343 344 344 345 345 345 346 345 346 348 348 346 345 343 343 344 341 338 338 339 340
343 342 338 336 333 331 330 329 328 327 328 328 328 328 328 328 328 328 328 328 328 328 328 328 328 329 330 331 330 330 330 331 332 333 332 332 334 335 337 339 341 341 342 342 342 343 343 344 345 345 345 346 345 344 343 343 344 345 344 341 340 340 340
342 338 335 333 332 331 331 329 327 327 326 327 327 326 327 327 326 325 325 326 327 327 327 327 327 327 328 328 330 333 333 333 332 332 332 333 335 336 338 339 340 340 340 340 340 339 339 340 343 344 343 343 343 342 342 342 343 344 343 343 342 341 339
341 338 335 333 333 334 331 327 326 326 326 326 326 325 325 324 323 323 323 323 324 325 325 325 326 326 326 326 328 331 335 336 335 332 331 332 333 334 336 337 337 339 339 338 337 336 337 339 341 342 342 341 342 341 340 341 341 341 341 341 338 336 333
338 337 334 330 330 331 328 324 324 325 324 325 325 323 324 324 323 324 323 323 323 324 324 324 324 324 324 326 328 331 334 337 337 335 333 332 332 333 334 334 335 336 336 335 335 334 335 338 339 341 342 341 340 340 339 339 338 336 335 333 330 329 327
332 330 329 326 325 326 324 324 325 324 323 324 323 323 324 323 323 323 323 323 323 323 324 324 324 324 324 324 325 327 331 334 336 337 336 334 332 331 332 332 333 335 335 335 335 334 335 337 339 341 341 339 339 339 339 337 334 331 329 327 325 325 327
327 324 323 323 323 324 324 324 324 324 324 324 323 323 323 323 323 323 322 322 322 322 323 323 324 324 324 324 324 325 327 331 335 337 338 336 334 332 332 331 331 334 335 335 335 335 337 339 340 339 339 338 339 338 338 336 333 328 326 325 324 324 328

ECMWFFLT2_850_thetae_024.txt.gz
Theta_e
323 323 325 326 326 325 324 325 324 325 329 331 327 325 331 330 326 330 331 332 336 333 338 348 345 343 343 338 338 337 337 339 339 340 341 342 343 344 345 346 347 347 347 347 348 348 348 348 348 348 348 348 350 350 350 348 344 340 338 336 334 331 328
323 322 323 326 324 327 327 322 324 328 325 331 336 327 327 327 325 330 329 326 327 327 338 354 347 343 345 342 341 337 336 338 338 340 341 341 343 343 345 346 346 347 348 347 348 347 347 347 346 347 348 348 349 350 350 347 344 340 335 333 330 327 326
324 322 321 323 323 323 326 325 326 327 322 327 331 326 326 325 325 330 329 327 329 329 338 350 342 342 346 344 343 340 339 338 337 339 340 340 343 343 344 346 346 347 348 348 348 348 347 347 346 347 348 349 350 350 349 347 343 339 335 332 329 326 325
323 324 320 319 321 321 324 325 324 326 327 328 326 325 327 325 327 332 328 324 331 335 339 343 340 345 346 342 345 343 339 337 337 338 340 339 342 343 344 345 346 347 347 347 348 347 347 346 346 347 348 348 349 348 348 347 344 341 337 333 328 325 324
321 323 323 320 321 322 322 322 322 322 325 327 326 325 329 329 331 334 328 325 334 344 344 343 341 346 345 342 346 344 337 335 337 338 339 340 341 342 343 344 345 346 347 348 348 347 347 347 347 348 349 349 348 348 347 346 344 342 337 332 328 325 325
319 324 328 325 324 325 323 322 323 323 324 324 322 322 326 328 328 333 331 324 332 345 345 342 341 344 343 340 342 343 336 333 336 338 338 339 341 341 342 343 343 345 346 348 348 348 348 349 349 349 348 349 349 348 346 345 344 342 336 332 329 327 326
324 326 327 325 323 324 325 323 324 325 326 325 320 320 326 326 324 331 330 322 332 355 353 343 343 343 337 334 336 339 335 334 336 337 338 339 340 340 341 342 342 344 346 347 348 349 349 348 349 348 348 348 348 348 347 345 344 341 338 334 330 329 328
326 325 327 326 325 324 323 323 326 324 324 325 323 328 333 328 324 329 326 322 340 373 367 351 345 339 333 332 334 335 334 335 337 336 338 340 340 340 341 341 342 343 345 347 347 348 349 348 349 348 348 348 348 348 348 347 344 341 339 338 335 332 331
321 322 324 322 322 324 324 327 327 324 325 326 326 331 330 324 327 330 325 325 341 368 368 353 347 346 343 335 332 335 336 336 337 337 339 339 339 341 341 341 343 343 344 346 346 347 347 347 348 347 347 348 348 348 349 348 346 342 340 341 339 336 334
320 320 321 323 325 328 328 330 326 324 327 325 327 330 323 322 330 330 328 333 341 354 357 347 347 355 356 343 333 334 337 336 337 339 338 340 340 340 341 341 342 343 343 345 345 346 346 346 347 346 347 348 348 348 348 349 348 344 342 342 341 340 339
321 322 327 334 336 328 323 326 325 325 326 323 329 330 323 329 334 331 340 346 335 338 348 344 349 355 357 353 340 334 336 336 337 339 338 340 340 340 341 341 341 343 343 344 344 344 345 345 346 346 346 347 348 348 349 349 350 348 345 344 343 343 342
322 325 329 333 334 326 322 325 324 325 327 324 326 325 326 338 332 325 350 360 334 333 349 349 353 356 354 353 342 334 337 337 337 339 339 340 340 340 341 341 341 343 342 343 343 343 344 344 345 346 346 347 348 348 349 350 351 350 348 346 345 346 345
324 326 325 327 330 327 326 328 325 325 326 323 323 324 329 339 328 322 347 359 338 336 348 346 350 354 350 347 339 335 337 337 337 338 338 339 340 340 340 341 341 342 342 342 342 342 343 343 344 345 346 346 348 348 349 350 350 350 349 349 349 349 349
325 324 323 326 327 326 327 327 327 327 326 325 324 325 329 333 329 328 342 351 343 339 343 344 341 338 336 335 334 335 337 337 337 338 338 340 340 340 341 340 341 341 342 342 341 341 341 341 342 343 344 345 346 347 347 348 348 349 349 350 349 351 352
324 323 324 325 322 324 324 322 327 327 324 325 323 323 330 331 329 334 340 343 343 340 342 342 332 329 333 336 335 336 337 337 338 337 338 339 340 341 341 341 341 341 341 342 341 341 340 339 341 341 343 344 344 345 346 346 347 347 348 350 351 352 353
322 323 324 324 322 323 321 319 324 324 322 325 323 325 334 332 330 338 338 335 338 341 344 341 333 333 339 339 335 334 335 338 338 338 339 339 339 341 340 341 342 341 341 342 341 341 339 340 341 341 342 343 343 344 344 344 346 348 350 351 351 353 353
323 324 322 324 322 318 319 323 324 322 324 326 324 330 340 337 334 337 333 331 338 344 342 341 340 342 343 337 334 334 336 338 338 338 339 339 339 341 340 341 341 340 342 341 340 340 340 341 342 342 343 343 343 343 344 344 346 347 350 351 351 352 352
325 328 325 324 320 317 327 339 334 326 325 324 326 336 343 342 341 343 340 339 346 346 341 341 343 342 339 335 334 335 337 337 338 339 340 340 340 340 340 341 341 340 341 340 340 341 341 342 342 342 342 342 343 344 344 345 346 346 349 350 351 352 352
327 330 325 321 321 326 339 345 336 331 328 327 336 344 343 341 343 348 351 349 349 348 340 335 335 333 332 332 332 333 336 337 338 340 339 340 341 340 340 341 340 340 341 341 341 340 338 337 336 336 336 337 341 344 345 346 346 346 348 349 350 352 352
326 325 321 321 328 336 339 337 336 337 334 333 339 339 337 338 339 344 352 353 350 347 336 329 330 330 330 332 332 332 335 336 337 339 338 338 338 339 340 340 340 341 340 338 337 334 333 332 331 331 332 334 338 342 344 346 346 347 349 349 350 352 351
332 332 326 327 332 333 335 339 339 338 335 334 337 336 335 338 336 338 347 348 343 341 334 329 330 331 333 337 336 333 334 335 336 338 337 338 339 339 341 340 338 338 335 333 333 332 331 331 330 330 332 332 335 339 342 345 347 348 350 350 350 351 350
340 339 331 330 331 330 340 350 342 335 334 332 334 337 336 337 337 336 341 342 338 338 337 331 330 333 339 342 337 333 334 334 335 336 337 338 339 338 337 336 335 334 333 332 332 333 332 332 331 331 331 331 332 335 337 342 346 348 350 351 350 350 350
337 336 333 337 337 335 345 354 342 334 333 331 334 337 334 338 339 333 335 340 337 335 334 330 332 339 342 340 336 334 335 335 335 336 337 337 337 335 334 334 334 334 334 333 333 333 333 333 332 332 333 332 332 332 334 338 344 348 350 350 350 350 350
340 339 339 339 339 338 342 345 339 334 332 332 334 334 333 340 339 331 332 338 336 331 330 332 340 345 341 339 338 336 334 334 333 335 336 335 334 333 333 334 334 335 336 336 335 334 333 334 334 333 333 332 331 333 335 339 343 347 348 349 350 350 350
344 343 340 336 338 342 340 337 335 332 331 329 330 333 335 337 335 332 333 336 335 333 333 337 343 343 340 341 342 337 335 334 333 334 334 334 334 335 335 336 336 336 338 338 336 335 335 335 335 334 333 333 333 335 338 341 344 346 348 349 349 349 349
340 340 340 337 338 340 334 331 331 331 333 333 334 335 336 334 333 335 336 335 337 337 337 339 340 340 342 346 346 341 340 340 339 340 339 338 339 339 339 339 338 337 338 337 336 336 336 336 335 335 335 335 336 339 341 343 345 346 347 348 348 348 348
337 339 339 334 335 336 331 332 338 340 341 340 336 334 335 335 336 337 336 336 338 338 338 339 339 339 341 343 342 341 340 340 340 340 339 338 338 337 337 338 337 336 336 337 337 337 337 337 337 337 337 338 339 340 342 344 346 347 348 348 348 348 347
339 342 340 333 334 335 330 332 340 340 337 337 335 335 336 336 338 339 338 338 338 337 338 338 336 336 336 336 337 336 335 334 334 334 334 334 332 332 333 333 332 332 335 337 338 338 339 339 340 340 340 340 339 340 343 345 347 348 348 348 348 347 347
338 342 343 336 332 331 330 331 334 333 334 334 334 335 336 336 338 338 336 335 334 334 335 333 332 332 332 330 331 331 331 331 330 330 330 329 328 329 330 329 328 331 335 338 338 339 340 341 342 343 343 341 340 341 343 345 347 348 348 347 348 347 346
338 337 336 334 331 330 329 330 330 330 331 331 330 331 332 333 335 334 331 331 331 331 332 331 330 329 328 328 328 328 329 330 330 329 329 328 328 329 331 332 334 335 338 339 339 339 341 342 343 344 344 343 343 343 344 346 347 348 347 346 345 344 343
343 341 335 333 333 330 328 328 329 328 327 327 327 327 328 328 329 329 328 328 328 328 329 329 329 329 329 329 328 328 328 328 329 329 328 327 327 327 326 328 332 335 338 339 339 339 340 341 342 343 344 345 345 344 345 347 347 346 345 344 342 341 341
345 345 337 332 331 329 327 327 328 327 327 326 327 326 326 326 326 327 327 327 327 327 328 327 328 329 330 331 331 331 331 330 328 328 327 326 326 328 328 326 328 334 338 339 338 338 338 338 340 341 343 345 346 346 346 346 346 345 343 342 341 340 340
339 338 334 332 331 330 328 326 326 326 326 325 324 324 324 325 325 325 325 326 326 326 326 327 327 328 331 333 334 334 333 333 332 331 331 329 328 329 331 331 331 333 336 336 336 336 335 335 336 338 341 343 344 345 346 346 345 343 342 342 342 340 339
337 336 334 333 334 334 330 326 326 325 323 323 323 323 323 324 324 324 324 324 324 324 325 326 326 327 329 331 333 334 335 336 336 335 334 333 331 331 331 330 330 331 333 334 335 334 334 335 335 337 339 340 342 344 345 345 343 342 343 344 342 340 338
333 332 330 329 330 331 328 325 325 324 322 323 323 322 323 323 323 324 324 324 324 324 324 324 324 325 326 327 329 332 334 336 337 337 337 336 334 332 331 330 330 331 333 335 335 335 335 335 336 337 339 339 341 343 343 342 342 341 342 343 343 341 340
326 325 325 325 325 325 324 324 323 322 322 323 322 322 323 323 322 323 323 323 323 323 323 323 324 324 324 325 326 327 329 331 333 335 336 336 335 334 333 332 332 333 334 335 336 337 337 336 337 338 339 340 341 341 341 340 340 340 340 341 341 340 339
325 323 323 323 323 323 323 323 323 322 322 322 321 321 322 321 322 322 322 322 322 322 322 323 323 323 324 324 325 326 327 329 331 333 335 336 337 336 336 335 335 336 336 336 337 338 338 337 338 339 339 340 340 340 339 338 337 336 334 334 335 334 333

ECMWFFLT2_850_thetae_027.txt.gz
Theta_e
321 323 324 324 323 321 322 322 321 323 327 327 323 321 325 324 321 325 328 327 329 332 333 338 339 337 338 340 340 339 341 343 342 343 343 343 343 344 344 344 344 345 345 345 345 345 345 345 345 346 347 345 345 346 345 346 347 347 347 348 349 349 347
320 322 323 324 324 324 322 320 322 325 325 328 329 324 323 323 320 323 327 325 325 325 328 337 342 338 338 340 340 340 342 343 343 343 343 341 342 343 342 343 344 344 345 344 345 345 345 345 344 345 346 346 345 346 346 346 346 347 347 348 349 349 346
321 321 321 321 323 324 322 322 325 325 320 324 329 325 322 322 320 322 324 324 325 324 326 333 338 340 343 343 344 342 340 342 343 342 342 341 341 342 342 342 343 344 344 345 345 345 345 345 345 345 345 345 345 346 346 346 346 346 346 348 350 349 345
321 321 319 318 319 321 322 323 325 325 322 324 326 324 321 321 320 320 322 323 324 326 331 334 335 344 351 347 347 346 341 341 343 342 342 341 340 341 341 342 342 343 344 344 344 345 345 345 344 344 345 346 346 345 346 346 346 347 346 348 349 348 345
319 319 320 319 320 321 320 320 321 322 324 324 324 324 322 321 321 322 321 321 322 330 338 340 338 344 349 348 349 349 345 341 340 340 340 340 340 340 341 341 342 342 343 344 344 345 345 345 345 345 346 346 346 345 345 345 346 347 347 348 349 349 346
317 320 322 322 322 323 321 321 321 321 322 322 320 321 323 321 322 323 322 319 321 332 340 340 343 344 341 343 347 346 344 341 339 338 338 338 339 339 341 340 341 342 342 343 344 345 345 345 346 346 346 345 346 346 346 345 346 347 347 348 348 349 349
322 322 323 322 321 324 324 322 324 323 324 322 318 319 322 321 322 323 322 319 322 338 348 340 341 343 338 339 342 341 340 337 337 338 336 337 338 338 340 340 341 341 342 343 344 344 345 345 346 346 346 345 346 345 345 345 346 346 347 348 348 349 351
325 322 322 322 321 322 322 321 325 323 323 323 320 325 327 323 321 321 322 319 321 342 360 347 341 343 339 337 337 338 338 335 334 336 336 336 337 338 339 340 341 341 342 343 344 343 345 345 345 346 346 346 345 345 345 346 346 346 347 348 348 349 351
321 321 321 321 320 322 320 322 324 322 325 325 324 331 331 324 322 323 321 318 321 340 360 351 342 339 336 336 336 336 337 336 335 335 335 335 336 337 339 339 340 341 341 343 343 343 345 344 345 346 346 346 345 345 346 345 346 346 347 348 349 349 350
319 319 320 320 321 322 321 323 324 322 325 324 323 327 324 321 327 328 321 319 325 342 353 347 342 341 339 340 339 337 336 334 334 336 335 336 336 336 338 339 340 341 341 343 343 344 344 344 345 346 345 346 346 345 346 346 346 347 347 349 349 349 350
320 321 325 327 326 322 319 321 322 322 323 324 326 325 320 324 329 326 326 329 328 334 343 344 344 344 343 345 343 340 338 333 334 336 335 336 337 337 338 338 340 341 341 343 343 343 344 344 344 345 345 346 346 345 346 346 348 348 348 349 349 350 351
325 326 329 328 326 322 321 322 322 322 323 324 325 322 325 334 327 318 333 348 333 329 342 346 346 347 348 351 348 343 339 335 335 336 335 337 338 337 339 338 339 341 340 342 343 343 343 343 344 345 345 345 345 345 346 347 348 348 348 349 349 351 352
325 326 326 326 325 324 323 323 322 323 324 323 324 323 330 338 326 318 340 355 339 332 338 341 343 348 350 350 345 339 337 336 336 337 336 337 338 338 339 339 339 340 340 341 342 342 342 343 344 344 344 345 346 345 346 347 348 348 348 348 350 351 352
324 325 324 325 325 324 323 324 324 324 324 323 324 325 329 333 330 327 342 353 344 335 336 339 342 342 341 341 338 337 337 337 336 338 338 338 338 338 339 339 339 340 340 340 341 341 342 342 343 343 343 344 345 345 346 346 347 347 348 349 350 351 351
323 324 324 324 323 323 322 322 324 324 323 324 324 325 328 330 332 333 337 342 342 337 338 341 340 336 337 339 339 338 338 337 337 338 338 338 338 338 339 340 339 340 340 341 341 341 341 341 342 343 342 343 344 345 345 345 346 347 348 349 350 351 351
322 323 324 324 322 323 321 321 323 323 322 322 322 325 328 328 330 333 331 330 333 336 339 340 337 338 340 343 344 343 339 337 338 338 338 338 338 338 339 339 339 340 340 341 341 340 340 341 341 341 341 342 343 344 344 345 346 346 347 348 349 349 350
323 325 325 323 321 320 319 320 324 323 323 324 323 324 329 329 330 331 329 328 333 339 340 338 337 340 343 344 343 341 339 337 337 337 336 337 337 338 339 339 339 340 340 340 341 340 340 339 339 339 340 341 342 342 343 344 344 345 345 346 347 348 350
324 325 324 322 321 319 320 325 327 325 324 325 324 323 327 328 330 334 335 337 342 343 339 338 341 342 343 341 337 336 338 338 337 338 338 338 338 339 339 340 340 340 340 341 341 341 340 340 340 340 341 342 342 342 343 343 343 344 345 345 346 348 349
325 326 324 321 320 322 327 334 332 327 325 324 326 329 333 332 332 336 339 340 344 345 339 338 341 340 337 334 332 333 334 334 336 338 339 339 338 339 339 339 340 340 340 341 341 340 341 341 342 342 341 341 341 341 341 343 343 344 344 345 346 348 349
326 325 323 322 325 328 332 334 332 329 328 326 325 329 334 336 335 335 336 337 341 343 339 337 336 334 333 333 332 332 332 333 335 336 337 339 338 338 339 339 340 340 340 340 341 341 341 340 339 338 336 335 335 336 337 339 340 343 344 345 346 347 348
327 325 323 325 328 329 331 334 335 332 331 330 329 328 332 338 337 336 337 339 340 338 337 337 334 332 334 336 336 334 333 333 335 336 337 339 338 338 339 339 340 341 340 340 339 337 336 335 334 333 331 330 330 331 333 335 337 340 342 344 346 346 348
328 326 325 326 325 325 330 335 335 334 333 334 334 333 334 337 337 336 338 339 339 338 336 336 335 334 335 337 338 337 334 333 335 337 337 338 339 340 340 340 340 340 337 336 335 333 332 331 330 329 329 329 330 331 332 333 335 336 338 341 345 346 348
328 327 325 326 324 327 335 337 334 334 334 334 334 330 330 335 337 337 337 336 336 338 337 337 338 337 335 338 341 338 334 333 335 336 338 339 340 340 340 339 338 336 334 333 333 332 332 331 330 330 330 330 330 330 331 331 331 332 334 339 344 345 347
328 329 327 326 327 332 337 335 333 334 334 334 332 326 328 337 339 336 335 334 335 338 338 337 340 341 340 341 340 335 333 335 337 337 340 340 339 339 338 336 335 335 335 334 333 333 332 332 332 332 331 331 330 328 328 329 329 330 334 339 343 346 347
327 328 326 326 329 334 335 332 333 334 333 331 329 328 333 340 339 336 336 334 335 338 338 338 342 344 342 340 337 336 337 336 336 337 338 337 337 337 337 337 338 337 335 334 333 333 334 333 333 333 333 332 330 329 329 329 330 333 336 341 344 346 348
331 331 328 326 329 333 333 332 333 333 331 329 332 335 338 339 339 339 338 336 338 342 344 346 346 345 344 345 346 347 345 341 338 338 337 337 338 338 339 339 338 336 335 335 335 334 334 334 334 333 333 332 331 330 331 332 334 335 338 342 345 346 347
335 334 330 326 329 332 333 332 335 336 335 335 338 339 339 339 341 342 342 342 343 345 345 346 346 346 348 349 349 350 348 346 344 342 339 339 339 339 339 338 337 336 336 335 336 336 336 336 335 334 334 334 333 333 333 334 335 336 338 342 346 347 347
337 338 335 331 333 334 333 332 333 335 335 336 339 340 340 340 341 341 341 341 342 343 344 343 343 343 343 343 342 341 341 341 341 339 338 337 337 336 336 336 336 337 336 336 337 338 338 337 337 337 336 336 336 335 335 336 336 336 338 343 347 348 347
339 342 343 340 337 335 333 331 331 331 331 333 335 338 338 337 337 338 338 337 336 338 339 338 338 339 337 334 332 332 331 331 330 331 330 330 330 330 329 330 331 332 332 334 336 337 338 339 339 339 340 340 339 338 338 337 337 337 339 344 346 347 347
338 337 339 338 337 334 331 330 329 329 329 330 330 331 332 332 333 335 335 333 331 331 331 331 333 334 332 330 328 328 328 327 326 326 327 327 328 327 326 326 326 326 326 328 331 334 336 337 338 339 340 340 341 341 340 340 339 341 343 345 346 346 347
336 337 336 334 335 334 330 328 328 327 328 327 326 327 328 328 330 331 331 331 329 328 328 328 329 329 329 328 327 327 327 327 327 327 328 328 327 327 326 325 326 325 325 325 329 334 336 336 337 338 339 339 341 342 343 343 343 344 345 345 345 345 346
336 339 337 333 332 331 328 327 327 325 325 325 324 325 325 326 327 328 329 330 330 330 331 331 331 331 331 330 330 330 329 329 328 327 327 326 326 325 325 324 326 328 328 327 330 335 338 337 337 337 337 338 338 339 341 342 344 346 346 345 344 344 344
334 335 334 333 332 330 328 328 326 323 324 324 324 324 325 325 326 326 327 329 330 332 334 335 335 336 336 335 335 334 333 332 331 330 330 330 329 329 328 328 329 332 333 332 332 335 335 335 335 335 334 335 335 337 339 341 343 345 345 344 344 343 342
335 334 332 333 334 333 330 327 325 323 324 325 324 324 324 324 324 324 325 326 327 328 331 332 333 335 335 336 336 336 336 335 335 334 333 332 331 331 331 331 331 332 333 332 331 332 333 333 333 333 333 334 335 337 339 341 343 344 344 344 344 342 341
332 331 329 330 332 332 329 326 324 324 324 325 325 324 324 323 323 323 323 323 324 324 325 327 328 330 331 332 334 334 335 335 336 336 335 334 333 332 331 331 332 332 332 333 333 333 334 334 334 333 334 336 337 338 339 341 343 344 344 343 342 341 340
326 326 326 326 326 326 324 323 323 323 322 323 323 322 322 322 323 323 323 323 323 323 323 323 324 325 326 328 329 330 330 332 333 335 335 335 335 334 333 332 333 332 333 334 334 334 334 334 334 335 335 336 338 339 339 341 342 343 342 342 341 340 339
325 325 324 323 323 323 322 321 321 321 321 321 321 321 321 321 321 321 321 321 322 322 321 321 322 322 324 325 325 326 327 328 330 332 333 334 336 336 335 335 335 334 334 333 333 333 333 333 334 334 335 337 338 338 339 340 341 341 341 340 340 340 340

ECMWFFLT2_850_thetae_030.txt.gz
Theta_e
324 324 324 324 323 321 323 322 319 322 329 328 322 320 322 322 321 322 323 325 329 330 335 339 338 338 337 337 338 338 341 346 349 350 350 351 351 353 353 354 355 353 348 344 343 344 344 343 344 344 344 344 345 345 346 346 346 346 347 347 347 347 347
324 325 324 324 324 324 323 320 320 326 329 329 324 321 321 322 321 321 322 323 325 324 328 336 337 336 335 336 336 336 338 344 348 349 349 349 350 351 352 354 355 353 349 345 343 343 343 343 343 343 344 344 344 345 346 346 346 346 346 346 347 347 347
323 325 324 322 324 326 324 323 326 326 322 322 324 321 321 321 320 320 320 321 323 323 325 332 336 336 336 336 336 336 336 343 349 349 349 350 350 350 352 353 354 354 351 348 345 343 344 344 343 343 343 343 344 344 345 346 346 345 344 346 346 347 347
323 323 321 318 320 324 324 325 327 327 323 322 322 322 322 321 320 320 319 319 322 327 330 333 335 338 336 335 337 336 335 339 347 349 349 350 350 350 351 352 354 353 351 350 348 345 344 344 343 343 343 343 344 344 345 345 345 346 345 345 346 346 347
322 320 320 319 320 322 321 321 322 323 323 324 323 323 323 321 320 319 320 319 320 328 335 336 336 337 336 336 337 336 336 335 340 347 349 350 352 351 350 352 353 353 351 351 352 350 347 347 345 344 344 343 344 344 344 345 345 346 346 345 345 345 346
319 320 324 323 322 323 322 321 320 321 323 321 320 321 322 322 320 319 320 319 321 330 337 336 336 336 334 335 335 335 337 334 335 345 349 351 352 351 351 352 352 353 353 352 354 354 353 351 349 347 347 346 345 344 344 345 345 346 346 345 345 345 345
323 324 326 325 323 325 324 323 324 323 323 321 317 318 321 321 320 320 320 319 323 333 337 335 336 336 334 335 336 335 335 333 337 346 348 350 352 351 351 351 350 352 353 353 354 354 352 352 352 350 349 348 345 345 345 344 345 346 345 345 345 345 345
327 327 327 327 326 325 323 323 325 324 323 323 321 322 323 321 320 321 320 318 323 332 338 338 336 335 335 335 334 335 336 335 341 348 348 349 352 352 350 350 349 350 354 353 352 352 350 351 352 349 348 347 346 346 347 346 345 344 345 346 345 345 345
324 324 325 325 324 325 323 323 325 324 324 325 324 325 325 321 320 321 320 318 323 332 341 342 339 337 335 334 335 335 337 337 342 351 351 348 351 353 350 350 350 351 354 353 348 349 349 349 349 348 346 347 347 346 347 348 348 345 345 346 345 345 345
321 321 321 321 322 324 324 324 325 324 324 324 323 321 319 319 321 323 321 320 325 334 340 339 339 339 336 335 336 334 335 340 345 353 353 349 350 351 347 348 351 353 355 353 348 347 347 347 347 345 344 345 346 346 346 349 351 348 346 346 346 345 344
321 322 324 327 326 323 322 323 324 324 324 324 323 319 317 319 322 321 323 325 325 330 336 336 336 337 336 335 335 334 339 345 348 351 351 350 350 347 344 347 351 354 354 351 348 345 345 346 345 343 343 343 345 346 345 348 352 351 349 348 348 346 345
326 326 328 329 328 325 323 323 323 323 325 325 322 318 319 323 320 317 325 330 325 327 334 335 334 335 334 334 334 334 336 342 349 352 349 348 349 348 345 346 350 354 353 350 349 347 344 344 343 343 343 343 344 344 344 346 350 353 352 350 349 347 346
328 328 328 328 328 327 326 325 324 324 324 324 322 320 323 325 320 319 327 331 328 330 332 332 334 335 335 335 334 333 332 338 350 354 351 349 350 350 347 342 344 349 351 350 348 346 344 342 342 342 343 344 344 344 344 345 349 353 353 351 350 349 350
327 329 329 328 327 326 326 326 326 326 326 324 324 324 325 325 323 324 328 330 331 332 331 331 332 333 333 332 333 333 332 339 348 353 353 351 349 350 347 341 338 341 346 349 347 345 342 341 341 342 342 344 343 344 345 344 347 351 351 349 349 350 351
325 328 329 328 328 326 325 325 326 327 326 325 325 325 325 325 325 326 327 327 329 332 331 332 332 331 332 332 333 334 334 339 347 350 351 350 349 350 348 343 339 339 345 350 348 343 340 340 341 342 342 343 343 344 344 344 345 347 347 348 347 347 349
323 326 327 326 327 326 323 323 326 326 325 325 325 325 326 325 324 326 325 323 327 331 330 332 332 331 333 334 335 336 334 337 345 349 351 350 350 351 348 344 340 338 343 348 345 340 340 340 341 341 342 342 343 343 344 344 345 345 345 347 346 346 349
323 326 326 325 325 323 320 322 326 327 326 326 326 326 328 328 326 325 323 323 329 332 329 331 333 330 331 337 339 339 341 346 350 349 350 351 351 352 349 345 341 340 347 351 346 340 340 340 340 341 341 341 342 343 343 343 344 345 345 346 346 348 348
324 326 326 326 323 319 321 326 328 328 328 327 327 326 327 328 328 326 326 328 332 332 330 332 334 331 332 339 342 343 346 351 353 351 350 350 352 353 352 350 349 347 351 353 347 340 340 341 340 341 341 340 342 342 343 344 344 344 346 346 346 347 346
327 327 326 324 322 323 327 332 333 330 329 328 327 328 328 328 329 328 328 330 330 331 333 333 333 333 337 342 347 348 344 345 348 349 350 351 351 352 354 355 353 349 347 347 344 340 340 341 341 341 341 341 342 342 343 344 344 344 345 345 345 346 345
329 328 326 323 325 328 329 333 335 334 333 331 327 326 327 328 329 328 329 331 329 331 334 332 333 339 344 345 345 344 340 339 342 344 346 349 350 350 350 349 347 344 343 343 343 341 340 341 341 342 342 342 342 343 343 344 343 343 344 344 343 345 345
330 329 327 327 326 328 332 336 339 338 337 337 334 330 331 331 329 329 330 330 330 332 331 332 339 342 342 342 340 340 340 338 337 339 344 346 346 346 346 346 344 342 342 342 341 340 340 341 342 341 343 343 343 343 342 341 341 340 340 341 340 342 344
329 329 330 331 325 325 333 338 338 337 336 338 338 335 335 334 330 330 332 332 333 333 330 335 342 341 337 335 335 339 342 337 335 339 343 345 347 348 348 347 345 341 340 341 340 340 341 341 341 342 342 341 340 339 337 337 337 336 336 336 337 340 344
327 327 331 332 326 328 339 340 336 337 336 336 336 332 330 334 336 334 331 330 334 334 332 338 343 340 335 333 334 342 344 340 338 340 343 347 349 347 344 343 342 340 340 340 340 341 341 341 340 339 337 335 333 333 334 335 334 332 332 332 333 339 342
326 327 330 330 327 333 341 337 334 337 337 337 335 328 328 339 345 344 340 337 335 334 336 342 343 338 333 332 339 345 343 341 341 344 347 349 348 347 345 343 342 340 340 340 341 341 340 338 335 332 331 331 330 330 332 333 331 328 327 330 335 340 343
325 326 327 326 328 336 339 336 336 337 335 336 333 330 335 345 346 344 345 343 341 341 343 343 341 339 339 342 346 345 344 345 347 348 349 348 349 349 347 343 341 341 341 341 340 338 336 333 331 330 329 328 328 328 328 328 327 326 327 331 336 342 344
323 325 325 324 328 336 337 335 337 337 334 333 334 337 343 346 344 344 344 341 341 343 344 343 342 343 346 348 348 348 349 351 352 350 351 352 353 351 347 345 345 344 341 338 336 333 332 331 330 329 329 328 328 328 327 327 327 328 331 335 338 341 343
325 325 326 325 328 335 338 336 337 338 336 336 338 341 344 344 344 346 346 344 344 343 343 345 347 350 352 353 353 353 355 356 355 355 353 352 350 347 345 345 346 341 336 334 334 333 332 331 331 331 331 330 329 328 328 329 330 331 334 336 337 338 340
325 324 326 329 332 336 337 336 336 337 337 337 338 340 342 343 344 346 347 348 349 349 350 352 354 356 358 358 357 357 356 356 356 356 354 351 349 349 347 343 339 336 334 335 334 334 333 333 333 334 333 331 330 330 331 331 332 333 334 334 335 336 337
329 328 332 336 338 337 336 336 337 336 334 335 336 338 340 340 341 343 346 348 349 351 353 353 354 355 355 354 355 355 354 355 356 356 355 354 352 351 347 341 337 335 336 335 335 337 338 336 335 335 334 333 332 333 333 333 333 334 334 334 336 336 337
334 335 338 340 340 338 335 334 335 333 331 332 334 336 337 337 338 341 342 345 346 347 348 348 348 349 349 349 350 350 351 352 351 349 349 348 345 343 341 339 338 336 336 336 337 338 338 337 337 336 336 335 336 335 335 335 335 335 336 336 337 338 339
331 332 337 339 340 340 337 333 332 331 330 330 332 334 335 335 336 337 338 341 344 344 345 345 343 343 344 346 347 347 347 347 344 341 341 340 338 338 337 337 335 333 331 332 334 334 334 335 336 337 336 337 337 337 338 339 338 338 339 339 341 343 344
333 335 339 338 337 336 334 332 331 330 331 332 331 332 333 333 334 335 334 336 339 342 344 345 343 343 344 344 345 346 346 345 341 337 336 336 335 335 335 333 332 331 330 330 332 332 332 334 337 338 338 339 339 339 340 340 340 341 341 341 344 346 345
336 337 337 336 334 333 331 331 330 328 330 333 331 329 331 332 332 333 332 333 336 338 340 342 342 342 343 343 344 345 346 346 343 336 334 334 334 334 334 332 332 333 333 333 335 335 334 335 337 338 338 338 337 338 338 337 338 339 339 340 344 346 346
336 336 336 336 336 333 330 331 330 327 329 330 328 326 329 330 331 331 331 331 332 333 335 338 339 339 340 340 340 341 342 343 341 338 336 336 336 336 335 334 333 332 332 333 334 334 334 334 335 335 335 334 335 334 334 335 335 336 338 342 344 345 345
334 333 334 335 336 333 330 329 328 328 328 328 325 324 326 327 328 329 329 329 329 330 331 333 335 335 336 336 337 338 338 338 337 336 335 336 337 335 333 332 332 331 331 331 330 330 331 331 331 332 332 332 333 333 333 334 334 334 339 343 344 344 343
332 332 333 333 332 331 329 327 326 326 326 327 326 325 324 324 325 326 326 326 327 328 329 330 331 332 332 333 333 334 335 335 335 336 334 335 337 338 335 331 330 330 329 329 329 329 330 331 332 333 333 333 334 334 334 335 335 338 341 343 344 343 342
330 330 330 331 330 329 328 327 326 325 325 325 324 324 324 323 323 324 323 322 323 325 327 328 327 326 327 328 329 330 331 332 333 334 335 335 337 339 338 334 332 332 332 331 332 332 332 333 334 334 334 334 334 334 335 337 339 341 342 343 343 342 341

ECMWFFLT2_850_thetae_033.txt.gz
Theta_e
328 325 325 327 323 321 323 323 320 323 329 327 320 320 323 322 319 321 322 322 327 332 334 339 340 339 340 340 339 340 339 339 338 338 342 346 349 351 354 357 358 357 355 357 357 357 357 358 358 357 357 357 354 357 361 353 344 345 346 347 347 347 347
328 327 326 326 325 325 323 319 321 326 328 327 324 320 321 321 319 321 321 320 323 324 326 336 341 339 340 340 339 338 339 339 338 339 340 343 348 353 355 356 358 358 358 358 358 357 357 358 358 357 355 352 347 348 353 348 343 343 345 346 346 347 347
328 329 326 323 324 327 324 323 326 325 320 319 322 319 319 320 320 320 320 320 321 321 325 335 340 339 340 340 339 339 338 338 337 339 342 346 349 351 354 357 357 359 360 359 359 358 358 359 357 354 350 347 343 343 345 345 343 343 344 345 345 347 347
328 327 324 320 321 325 325 325 327 326 321 319 320 320 320 320 319 319 320 320 320 325 331 337 338 339 340 339 340 339 337 338 338 339 341 344 347 351 354 356 357 359 360 360 360 358 358 359 358 354 350 346 343 344 343 343 344 344 344 345 344 345 346
325 323 324 322 321 323 321 320 321 322 324 323 322 322 321 320 319 319 321 319 321 329 336 338 339 339 339 339 340 339 337 337 337 338 338 340 345 351 355 356 357 359 359 360 361 359 357 359 358 355 352 348 346 348 345 343 344 345 344 345 345 344 345
320 322 326 326 325 325 323 320 320 321 322 321 319 318 320 321 319 319 321 319 321 331 337 337 338 338 337 339 339 338 337 337 336 337 337 337 343 352 355 355 356 358 359 359 360 359 358 359 359 357 355 351 349 352 349 345 346 345 344 345 345 344 343
323 325 328 326 326 327 326 324 324 324 324 321 316 315 318 320 320 321 321 319 324 334 339 338 337 338 337 338 339 338 337 337 336 336 336 339 349 354 353 353 354 356 359 359 358 360 359 358 361 359 357 354 353 354 354 351 348 346 346 346 344 344 343
327 327 328 328 327 327 324 325 326 324 323 323 322 321 322 321 319 320 320 318 323 334 340 338 337 338 338 337 337 338 338 337 335 336 337 340 351 357 354 352 352 353 358 360 359 360 360 359 361 361 358 356 356 356 356 355 351 347 348 350 346 342 343
323 323 324 324 324 324 323 324 326 325 325 325 324 325 325 322 319 321 320 317 322 333 340 338 337 337 337 336 337 337 337 337 336 336 336 337 348 358 357 352 352 353 356 360 359 360 361 360 362 363 360 358 357 355 356 357 354 350 350 353 350 344 343
319 319 320 321 321 323 323 324 325 325 326 325 322 321 320 319 321 323 320 318 324 335 339 337 336 337 337 337 338 336 337 337 335 336 341 345 354 360 357 354 354 353 355 359 359 360 362 361 363 364 361 361 359 354 353 357 358 355 352 354 355 349 344
322 322 324 327 326 323 321 322 324 324 325 325 324 319 316 318 321 320 322 324 326 331 336 336 336 337 337 339 337 336 337 336 334 342 354 358 361 362 359 355 355 354 356 360 360 361 363 363 364 364 364 363 361 356 354 357 359 359 355 354 358 354 346
327 328 329 330 329 325 323 323 323 324 325 326 323 319 319 323 319 316 324 331 326 327 335 336 336 337 337 337 338 336 337 335 334 344 358 362 362 362 359 356 356 356 357 361 363 363 365 365 365 366 365 363 362 359 356 357 360 362 359 357 360 356 350
329 330 329 329 329 328 327 326 325 325 325 324 322 321 324 326 320 318 327 331 327 329 333 334 335 338 337 337 338 335 335 337 334 337 352 360 362 361 359 357 356 356 359 364 366 364 364 364 364 367 366 364 364 363 359 357 359 363 362 360 360 357 353
328 329 329 329 329 327 327 327 328 328 327 325 324 324 325 326 324 324 328 330 330 331 331 333 334 336 336 336 337 335 335 336 335 333 342 352 356 357 359 359 355 354 359 365 367 365 365 364 365 367 366 365 365 363 359 357 358 361 363 361 360 357 355
326 329 330 329 328 326 325 326 328 328 328 327 326 325 326 326 325 326 327 327 329 330 333 334 334 335 337 335 337 337 335 335 336 334 336 339 341 344 351 358 358 356 360 367 367 366 364 361 362 365 365 364 365 363 359 357 357 362 365 362 359 358 357
324 329 330 329 328 327 323 323 327 328 327 326 327 327 327 325 325 326 325 323 326 330 332 333 333 335 335 335 336 337 336 336 335 334 335 333 335 335 337 351 362 362 363 364 362 363 364 357 353 359 364 364 364 363 362 359 359 365 366 362 359 358 357
324 328 329 328 328 325 322 323 326 327 328 328 327 328 329 329 327 326 323 323 328 331 331 331 332 333 334 335 336 336 336 337 335 334 335 333 334 336 332 341 356 362 362 360 358 362 367 358 347 356 366 366 362 363 363 360 360 364 366 363 358 356 357
324 328 329 328 325 322 323 328 329 329 329 329 328 328 329 330 330 329 328 329 331 332 330 330 331 332 334 334 334 334 335 335 335 334 334 334 334 335 333 335 349 359 363 362 363 366 368 362 355 361 369 366 361 362 362 359 358 361 363 362 357 355 356
325 328 329 326 322 324 328 331 331 329 329 329 330 330 330 330 330 330 331 331 331 332 331 331 332 332 332 332 333 334 332 332 335 333 333 336 334 333 336 338 347 360 363 363 366 368 367 365 363 365 368 364 358 359 360 357 355 355 357 358 356 353 353
328 327 326 324 326 329 331 332 331 331 333 333 331 330 332 332 332 331 331 331 332 332 330 331 332 330 331 332 331 332 331 330 333 332 331 335 333 333 340 344 351 359 358 358 365 367 366 364 362 363 367 365 360 359 357 353 351 351 352 354 353 350 349
329 325 323 325 328 328 331 335 337 337 338 337 336 334 334 335 333 332 332 331 330 332 332 332 331 330 333 334 332 332 332 332 333 334 334 334 333 335 341 348 356 357 350 355 364 364 364 364 361 364 369 368 363 358 354 353 351 348 349 351 351 349 347
329 325 323 326 326 326 333 339 338 337 337 336 338 336 334 335 334 333 335 336 334 332 331 330 331 332 332 333 334 333 333 334 336 338 338 335 335 342 348 355 360 353 347 357 363 360 362 364 361 363 367 364 359 356 355 354 349 345 347 348 349 348 346
328 326 325 326 325 329 339 342 337 336 335 335 336 331 330 338 345 343 343 344 343 342 339 333 331 334 332 331 333 333 335 337 335 335 338 336 336 344 352 357 360 351 347 359 363 361 362 361 355 354 357 355 352 352 353 352 349 345 345 345 346 346 345
328 327 326 327 327 333 341 340 336 335 335 335 334 327 328 341 349 347 346 347 347 347 347 341 334 332 332 331 332 333 334 333 332 336 342 339 336 343 351 356 358 354 354 361 365 364 363 358 351 353 354 350 346 346 348 353 352 348 344 345 346 344 342
325 326 326 326 328 334 338 336 335 335 334 334 332 330 335 346 348 346 348 348 347 348 348 344 339 334 333 332 332 333 333 333 336 341 344 343 344 350 356 358 360 361 362 364 363 362 360 357 356 358 354 347 344 345 350 356 358 355 351 350 347 342 339
323 325 325 324 327 334 337 335 335 336 334 332 334 338 343 345 343 344 347 347 349 349 347 345 343 340 335 332 331 333 336 341 345 346 347 349 351 354 357 359 360 362 363 362 361 361 361 359 362 363 357 350 349 352 357 362 363 359 353 347 340 336 335
324 323 323 323 326 334 338 335 336 337 336 336 339 342 342 341 341 343 344 345 349 350 348 346 345 343 341 338 337 338 341 345 350 352 353 353 355 358 360 360 361 361 361 361 362 363 362 362 365 365 359 354 356 360 363 363 358 350 342 336 334 333 333
324 320 323 326 330 335 336 335 337 339 340 340 341 341 340 341 343 343 344 346 349 349 349 347 345 344 342 342 343 344 345 348 352 355 356 357 359 362 362 360 360 360 362 363 363 363 363 364 363 360 354 351 354 357 354 346 339 334 331 330 331 332 337
327 326 331 335 336 337 336 336 337 339 339 339 340 341 341 342 342 343 345 346 347 347 346 345 346 348 348 348 350 351 352 354 357 359 360 360 360 359 359 360 362 363 364 365 364 364 364 361 356 350 343 339 340 338 333 329 329 329 330 330 330 332 338
335 337 339 338 336 336 337 336 336 336 337 337 338 340 341 341 341 343 344 346 347 346 346 346 349 352 353 352 354 355 356 356 358 360 361 360 361 362 363 363 363 362 361 360 358 356 352 346 341 337 333 330 329 329 329 331 331 330 330 331 331 332 337
335 337 339 339 338 337 336 335 335 335 336 337 337 339 340 340 340 342 344 346 346 346 347 349 350 352 353 353 355 357 358 358 359 359 359 359 359 359 358 355 352 350 348 345 341 339 340 340 337 332 330 330 330 329 330 330 330 331 332 333 333 336 338
337 337 340 340 339 338 337 337 337 336 335 336 336 337 337 338 338 340 341 343 344 345 346 347 348 349 350 350 353 354 354 355 357 357 357 358 359 359 358 355 352 348 346 342 338 339 345 345 340 335 335 334 334 334 334 332 333 334 334 335 336 338 339
338 339 340 338 337 337 336 336 336 335 334 335 334 334 335 335 336 337 337 338 340 342 343 344 345 346 346 347 349 349 350 351 353 353 354 356 357 357 355 352 348 345 343 340 337 338 342 343 340 339 340 339 340 342 339 334 335 335 335 336 338 340 342
336 337 338 337 336 336 335 335 336 335 333 333 332 332 333 333 333 333 334 335 335 336 337 339 341 342 343 344 345 345 347 350 351 350 351 351 351 351 350 345 342 341 341 340 339 338 340 341 341 340 340 340 342 342 339 336 337 336 335 336 341 344 346
335 335 336 336 336 336 335 335 335 335 333 331 329 328 329 329 330 331 331 332 332 333 333 334 336 337 339 341 342 343 345 347 349 349 349 349 349 349 349 347 343 341 339 338 336 336 337 337 335 335 337 338 338 335 334 334 334 333 334 339 345 347 347
334 334 335 335 335 334 333 333 333 332 332 330 328 326 326 327 327 328 328 328 328 329 330 330 331 333 334 335 336 338 339 341 344 347 347 348 348 348 349 349 348 346 343 339 337 337 338 339 338 338 338 338 337 335 333 334 335 337 339 344 347 347 345
333 333 334 334 333 332 332 331 331 331 330 329 328 327 328 327 326 326 326 325 325 325 326 326 327 329 331 332 332 333 334 335 337 341 344 346 347 348 349 350 351 351 349 347 346 345 344 343 340 336 334 335 337 336 334 335 339 343 344 345 346 345 344

ECMWFFLT2_850_thetae_036.txt.gz
Theta_e
330 328 328 329 325 321 323 323 319 321 327 325 318 317 321 321 319 320 321 322 326 331 334 337 339 340 342 342 342 341 344 345 345 347 347 347 347 347 347 349 350 350 350 352 353 356 357 356 356 357 358 358 357 358 360 361 361 358 353 345 343 346 347
329 330 328 329 327 326 323 319 320 325 327 326 322 317 318 320 319 321 320 319 322 323 327 335 339 340 340 342 342 341 344 345 343 346 347 347 349 348 347 349 350 351 350 350 354 357 357 356 357 357 358 358 357 357 359 360 361 360 354 345 343 347 347
329 330 328 326 327 328 325 322 325 326 319 318 320 317 317 319 319 320 320 320 322 321 325 333 338 339 341 343 344 342 343 343 343 348 351 351 350 349 349 348 349 350 350 350 355 359 358 357 357 357 357 357 356 356 358 359 360 359 354 346 343 346 347
330 329 326 322 323 326 327 325 327 326 321 318 319 318 319 319 318 319 319 319 321 325 331 335 338 341 343 343 345 344 342 341 342 347 351 352 352 352 350 347 347 349 350 352 357 359 359 358 357 359 359 357 357 357 358 360 361 360 356 350 344 344 347
328 325 325 324 323 324 324 321 321 321 322 322 321 320 320 320 318 318 319 319 320 329 336 337 340 344 343 343 346 346 344 341 339 343 346 349 351 350 348 348 349 350 352 355 358 359 359 358 358 360 360 359 358 358 359 361 363 363 359 352 346 343 347
323 324 329 329 327 327 325 322 320 320 321 320 318 318 319 319 318 318 319 318 321 331 339 341 343 343 340 342 345 344 342 341 339 340 343 345 344 343 344 347 350 353 355 358 359 358 359 358 359 360 360 359 358 359 360 361 364 365 359 351 346 343 346
326 329 331 329 328 330 328 326 325 324 323 319 315 315 317 318 318 319 319 317 323 335 344 344 344 344 340 340 344 342 341 341 340 339 341 341 340 342 345 347 349 350 352 356 359 359 359 359 359 359 359 359 358 359 360 361 364 364 358 350 344 344 346
328 330 331 331 330 330 327 326 327 325 323 322 320 320 321 318 317 317 318 317 323 335 347 347 345 345 341 338 342 342 340 341 339 339 341 341 342 346 347 347 347 345 344 351 358 359 359 359 359 359 359 359 359 359 360 362 362 359 356 351 346 344 345
324 325 325 325 327 327 326 326 327 326 325 325 323 324 324 320 318 318 318 317 322 333 347 350 343 342 340 337 339 340 340 341 340 340 343 344 345 346 346 347 349 348 347 351 357 360 360 359 358 360 361 360 360 360 359 362 362 357 356 355 351 346 344
319 319 320 320 323 325 326 326 327 327 326 325 322 320 318 318 321 323 319 318 324 333 343 344 340 340 342 341 339 338 339 338 339 344 345 345 346 347 348 351 352 351 350 352 357 360 360 360 360 361 362 361 362 360 359 361 361 358 357 358 356 351 345
321 322 325 327 327 324 322 324 325 326 327 327 324 319 315 318 321 321 324 327 328 331 338 340 339 338 342 344 341 340 341 340 337 343 348 349 350 350 352 354 352 351 352 353 357 360 361 361 361 361 362 362 362 361 359 359 360 358 357 357 358 355 350
325 329 331 331 329 325 323 324 324 325 326 327 323 319 318 324 320 316 328 339 330 328 335 340 342 341 340 345 344 341 342 340 336 344 354 357 356 355 356 356 353 351 352 355 358 359 361 362 361 361 362 362 362 361 358 357 358 358 357 357 357 356 354
327 330 331 330 330 329 327 326 325 325 326 324 323 322 323 327 322 318 331 343 334 331 334 335 340 343 341 342 342 339 340 338 337 348 357 360 362 363 359 355 354 352 352 356 359 359 361 362 362 362 362 362 362 361 358 356 356 358 358 357 357 355 355
328 329 329 331 331 329 327 328 327 327 327 325 324 325 325 326 327 325 331 338 336 333 332 333 336 338 338 338 338 338 339 337 337 347 351 350 355 362 362 356 354 352 351 355 358 359 362 362 362 362 362 363 363 361 360 357 355 357 358 357 357 356 354
326 329 330 329 330 329 327 327 329 328 328 327 325 326 326 326 327 328 328 330 332 332 333 335 335 335 337 338 339 339 339 338 337 341 344 341 344 355 362 359 354 349 348 353 357 361 361 361 362 362 362 364 363 362 362 359 356 357 358 358 357 355 354
324 328 330 328 329 329 325 325 328 328 327 328 327 327 328 326 326 327 326 325 329 332 334 334 334 335 337 338 339 339 339 339 338 337 339 339 340 344 351 354 354 348 344 347 353 356 357 358 361 362 363 365 365 364 363 361 359 357 359 360 358 355 356
322 326 328 328 327 325 321 323 328 329 329 329 328 329 331 329 328 326 323 324 331 336 336 333 333 335 337 338 338 336 337 339 341 340 338 338 340 340 341 348 353 351 347 346 348 350 352 353 356 358 361 364 365 364 364 362 360 359 359 360 359 357 358
321 325 327 327 324 321 323 328 330 330 330 329 328 328 331 331 330 329 328 330 334 337 334 333 334 335 337 338 336 335 336 338 339 340 338 336 338 340 341 347 351 352 352 351 348 349 350 349 349 353 359 364 365 365 365 364 362 361 361 362 361 360 360
321 325 326 323 320 323 329 332 333 332 330 330 330 330 331 332 332 333 334 334 336 337 334 334 335 335 334 334 333 332 334 335 335 337 337 337 337 337 341 348 351 352 355 357 356 354 351 349 350 354 360 364 365 365 365 365 363 361 362 364 363 362 363
323 323 323 322 324 329 332 333 334 333 332 332 329 327 329 331 330 333 336 336 339 341 336 331 332 331 331 331 332 332 332 332 334 334 333 335 335 335 336 342 350 351 351 352 354 353 353 353 354 356 359 363 366 366 366 365 364 362 363 365 365 364 365
324 322 321 324 327 329 331 334 335 335 336 335 332 330 333 334 333 338 342 340 340 340 337 337 339 337 335 334 332 331 331 331 331 332 332 333 334 335 333 333 340 347 345 344 347 351 356 358 356 357 360 364 367 367 366 366 365 363 364 366 367 367 367
325 323 321 324 324 324 330 337 339 337 336 337 337 334 335 338 339 342 343 342 340 342 343 344 345 343 341 339 336 332 331 331 331 330 331 331 330 332 334 331 332 338 343 346 348 350 355 358 358 360 363 366 367 367 367 368 366 364 365 367 369 370 369
324 323 322 323 322 326 336 342 340 337 335 337 336 331 331 342 348 345 344 343 342 345 347 347 347 344 341 338 336 333 331 330 331 331 331 333 332 331 332 332 333 338 342 344 346 350 355 357 360 361 363 367 369 368 369 370 367 366 367 369 371 372 370
325 325 324 324 325 332 342 342 337 336 336 337 334 326 328 344 350 345 346 346 344 347 351 349 347 345 342 340 339 337 333 332 331 332 331 332 334 332 332 335 341 348 351 352 353 356 356 357 358 360 363 368 369 369 370 371 370 369 369 370 372 370 367
327 327 326 326 329 337 343 339 336 337 337 334 329 327 335 346 345 342 344 344 344 348 350 350 350 349 347 345 343 339 336 334 334 336 337 337 337 336 334 337 343 350 356 358 357 355 354 356 359 362 366 369 371 370 371 371 370 369 369 370 370 367 366
326 328 328 326 329 335 339 337 337 337 334 330 331 337 344 345 341 342 344 343 344 348 349 350 351 349 347 347 347 344 340 338 339 341 338 335 337 339 335 334 339 349 357 358 355 355 357 359 362 366 369 371 372 371 371 371 371 370 369 368 367 366 366
326 325 326 326 328 333 334 337 338 335 334 335 339 342 342 341 341 344 344 345 347 348 348 349 350 348 347 347 346 344 342 340 343 346 344 339 342 348 350 351 352 357 361 359 357 361 363 364 366 369 371 373 372 370 370 371 370 369 368 368 367 366 364
324 322 324 328 331 333 331 335 338 337 338 342 343 341 340 341 343 343 344 347 349 349 348 348 348 348 347 347 348 348 347 345 346 349 351 349 347 350 357 362 364 364 364 362 363 367 368 368 369 370 372 372 370 369 370 370 369 368 367 365 363 361 360
330 329 331 333 334 335 335 338 339 339 340 341 341 340 341 341 340 343 347 349 350 351 351 351 351 351 351 352 354 355 355 355 354 354 354 354 354 354 357 362 365 367 367 367 367 368 368 368 369 371 370 369 368 368 369 368 367 367 363 358 355 354 352
338 338 339 338 338 337 335 337 338 337 337 339 340 341 340 338 339 343 347 348 348 349 350 352 354 353 351 352 352 351 353 355 356 357 356 357 359 361 361 361 363 364 365 366 365 366 368 368 369 369 368 367 368 368 367 367 365 360 352 347 347 349 347
339 341 342 341 341 341 337 336 337 336 337 338 339 340 340 340 342 343 344 344 345 346 346 347 347 347 348 348 347 348 351 352 353 356 357 357 358 359 358 359 362 363 364 365 366 367 367 367 368 368 367 366 365 365 365 362 356 345 337 335 337 339 338
339 340 340 338 338 338 337 337 337 337 337 337 338 339 339 339 339 338 338 337 338 341 343 344 343 344 345 344 343 344 347 350 353 354 355 356 358 359 357 355 356 359 361 362 364 365 365 366 367 366 364 362 360 358 356 349 339 331 330 330 331 334 335
338 338 337 336 337 337 337 336 336 337 337 337 336 336 336 335 334 334 333 332 332 334 336 339 341 341 340 341 342 342 343 347 351 352 353 354 354 356 356 354 353 355 356 357 360 361 360 361 361 359 357 356 354 348 339 332 329 330 332 332 333 334 336
337 337 337 337 338 338 337 336 335 335 334 334 334 333 332 331 331 330 330 329 329 329 330 332 334 335 334 336 339 341 342 345 347 348 349 351 352 353 354 354 354 356 355 356 357 357 356 355 355 356 357 354 346 337 332 332 333 333 333 334 335 336 338
335 336 336 337 338 338 337 335 334 333 333 333 333 332 330 329 329 329 328 327 327 327 327 326 327 328 329 330 333 335 339 342 344 345 346 348 351 353 353 353 354 354 353 352 352 350 349 350 353 355 357 354 346 339 336 337 337 335 335 337 340 341 344
335 335 335 336 336 335 334 333 334 333 333 333 333 332 331 330 330 328 327 326 326 326 326 325 324 324 325 326 328 329 331 335 339 342 344 346 349 351 352 353 353 352 351 350 349 350 351 351 352 354 354 353 351 348 344 341 340 338 339 344 347 346 347
334 334 333 333 333 333 333 333 332 331 331 332 332 331 330 330 329 328 327 327 327 326 325 325 324 324 324 324 325 327 328 329 332 336 340 343 346 348 350 351 351 351 352 351 351 351 351 350 349 349 348 347 348 349 347 343 337 335 340 348 350 347 346

ECMWFFLT2_850_thetae_042.txt.gz
Theta_e
327 326 329 327 324 325 324 320 317 320 324 323 320 321 325 321 319 324 324 326 337 340 337 340 340 340 341 341 343 342 341 344 344 345 345 344 346 345 345 346 346 345 346 345 346 346 347 347 347 347 348 348 349 349 349 349 350 350 350 351 351 351 351
327 326 328 328 327 328 324 318 319 324 325 324 323 320 320 317 317 323 321 320 326 329 336 349 344 339 342 342 344 344 342 343 343 344 346 345 346 346 345 346 346 346 346 345 346 346 347 347 347 348 348 348 349 349 349 350 350 351 351 351 352 351 352
326 328 326 325 328 327 324 323 324 325 320 317 321 321 318 316 316 318 320 322 324 325 337 352 342 339 344 341 343 345 343 343 342 343 346 345 346 346 346 347 346 346 346 346 347 346 346 347 347 347 348 348 350 349 350 351 350 351 351 351 352 353 353
326 328 325 322 324 327 327 326 324 326 322 317 318 320 320 320 320 320 319 321 326 333 343 345 339 342 344 341 343 346 343 343 342 342 344 345 346 346 346 347 346 346 346 346 347 347 347 347 347 348 349 349 350 350 351 352 352 352 352 352 353 353 354
323 323 325 323 324 325 325 322 321 321 321 320 319 320 321 323 324 326 322 318 327 347 350 342 341 343 340 340 342 343 343 343 342 343 344 344 345 346 346 347 347 347 347 347 347 347 347 348 348 349 349 350 351 351 351 352 353 353 353 353 354 354 355
320 322 327 327 326 327 325 323 322 320 320 320 316 318 323 320 321 329 327 320 330 352 351 342 343 343 341 341 341 341 342 342 342 343 343 344 345 345 346 347 347 347 347 347 347 348 348 349 349 349 350 350 351 352 352 353 353 354 354 354 354 355 356
322 325 328 327 326 328 327 325 325 323 323 320 315 320 328 321 318 328 327 320 330 356 359 346 343 343 339 336 338 340 340 340 343 344 343 344 344 345 346 346 347 347 347 348 348 348 349 349 350 350 350 351 351 352 353 353 354 354 355 355 355 355 356
323 325 328 328 327 328 326 325 327 324 323 321 320 330 336 325 317 321 320 316 327 353 360 345 345 348 341 336 335 338 338 340 343 343 343 345 344 345 346 345 346 347 347 348 349 349 350 349 350 351 351 351 351 352 353 354 354 355 355 356 356 356 357
321 321 322 323 324 326 325 325 326 325 325 324 322 328 330 323 321 321 316 314 329 357 357 336 339 345 343 342 338 335 338 341 343 343 343 344 344 345 346 346 347 347 347 348 348 349 350 350 351 351 351 352 352 352 354 354 354 356 356 357 357 357 358
318 317 319 324 326 324 323 326 325 324 326 323 321 322 318 320 327 325 319 320 335 357 350 331 331 333 333 341 340 336 339 341 343 345 343 344 344 344 346 346 346 347 347 349 349 349 350 350 350 351 351 352 352 352 354 354 355 356 356 357 358 358 359
319 318 325 337 336 324 320 325 323 324 327 323 323 321 316 324 329 323 330 341 336 335 337 331 331 330 327 334 339 339 339 340 344 345 343 345 345 344 346 346 346 347 347 348 349 349 350 350 350 350 350 352 352 353 354 355 356 357 356 357 358 359 359
323 323 327 333 333 324 321 324 323 323 326 324 323 319 319 331 325 314 334 356 335 327 339 336 331 332 331 337 342 340 338 339 343 345 344 345 345 344 346 346 346 347 346 348 349 349 350 351 350 351 351 351 352 353 354 355 356 357 357 357 358 359 360
324 326 326 326 329 328 325 325 324 323 325 323 322 321 323 331 323 315 335 356 342 342 351 340 334 336 336 339 339 336 337 339 339 342 343 344 344 345 345 345 346 348 347 348 348 348 349 350 350 351 351 351 353 353 353 354 355 356 357 357 358 359 359
324 325 326 326 327 328 327 326 325 324 326 324 322 324 325 327 326 324 336 348 346 350 353 344 338 336 335 337 335 333 338 339 336 339 342 343 344 343 344 345 346 346 347 347 347 348 349 348 350 351 351 352 352 353 354 355 355 356 356 357 357 359 359
322 323 327 326 325 327 326 326 328 325 324 325 323 324 325 325 327 328 331 335 337 342 350 348 337 332 333 336 337 339 340 339 339 339 338 341 344 344 343 345 345 345 346 346 346 347 347 347 348 349 350 351 351 353 354 354 354 355 356 357 357 357 358
321 322 325 325 325 326 323 323 327 326 324 324 323 324 327 327 328 330 329 329 333 339 346 344 336 337 343 343 341 341 341 341 342 341 340 340 342 344 345 344 344 345 345 346 347 346 345 346 347 347 348 349 350 352 353 352 353 354 356 357 357 357 357
325 324 323 324 323 321 320 321 325 327 327 327 326 327 329 328 330 331 326 326 335 342 340 336 335 338 344 344 339 337 342 347 344 340 343 343 342 344 345 344 345 346 346 346 346 345 344 344 345 345 346 348 349 349 350 351 353 355 356 357 357 357 357
327 327 325 325 320 317 321 326 328 329 327 329 331 330 331 330 328 332 334 333 337 340 336 337 339 337 335 335 335 334 340 347 347 344 342 342 342 343 343 343 345 345 346 346 346 346 344 342 341 343 344 347 347 347 348 351 354 356 357 357 357 357 357
328 331 328 322 320 325 337 340 334 330 329 331 335 340 345 343 336 342 355 349 341 341 339 337 339 337 336 339 341 340 339 341 346 348 344 341 342 342 343 344 344 345 347 348 347 346 344 342 340 341 344 346 348 349 351 353 355 356 357 357 358 358 358
328 330 326 322 326 336 345 341 332 333 334 331 337 346 355 356 348 352 361 355 349 351 344 335 334 337 340 345 347 345 343 342 343 344 344 346 348 347 348 348 347 347 347 346 346 345 343 343 343 341 343 346 348 351 354 355 356 357 358 357 358 358 358
328 329 325 325 328 331 336 339 336 337 337 334 341 350 354 357 353 351 356 358 356 355 349 339 332 333 343 351 350 348 347 345 345 344 341 341 342 344 346 347 348 348 346 345 345 344 343 344 343 342 344 346 348 352 354 356 357 357 358 358 358 358 358
331 330 325 325 324 327 338 345 341 340 342 342 349 355 354 358 356 348 353 362 359 357 359 347 333 337 359 363 352 350 350 345 345 346 343 340 339 337 337 338 340 342 343 344 343 343 346 347 343 342 345 347 349 352 355 356 358 358 359 358 358 358 359
330 327 326 325 323 329 345 350 341 337 339 343 350 353 351 361 358 346 350 359 357 357 361 353 346 362 380 365 349 350 353 348 344 344 343 342 341 339 338 337 336 335 337 339 339 342 346 347 346 347 349 351 352 353 354 355 357 358 359 358 357 357 358
331 327 326 325 325 333 344 345 338 334 335 340 343 342 346 358 355 346 348 354 353 350 349 350 358 372 372 359 350 351 352 348 347 347 347 345 343 341 340 340 337 335 336 335 337 342 346 349 350 350 351 353 354 353 354 356 358 359 358 356 356 357 357
334 332 328 326 330 339 342 339 338 336 333 336 336 336 345 353 351 350 351 350 350 349 348 351 356 356 354 352 350 350 348 345 346 349 351 353 351 348 346 343 340 338 338 335 335 338 344 350 354 355 356 357 355 352 352 356 357 354 352 354 356 357 358
336 335 334 331 331 336 337 335 338 338 333 336 338 341 349 350 348 352 352 349 350 349 347 348 349 347 348 350 349 349 348 346 346 346 348 350 351 352 351 348 342 339 340 339 338 337 338 344 348 351 355 359 359 359 359 359 356 349 347 354 358 359 360
335 337 341 339 335 335 335 336 342 345 343 343 345 347 348 348 349 350 348 347 349 347 346 346 346 347 348 348 348 349 348 348 347 347 347 349 352 355 356 355 350 347 344 344 345 344 340 340 342 343 348 353 358 361 362 362 362 360 359 360 360 360 361
336 339 343 341 337 336 334 336 341 345 345 346 346 346 345 346 347 347 346 346 346 345 346 346 345 347 347 347 347 348 348 350 349 347 347 347 349 353 356 358 358 357 354 354 357 356 352 348 347 347 349 352 355 358 360 360 361 363 364 364 363 363 362
337 337 338 337 335 334 334 335 338 341 343 345 345 344 344 344 343 344 343 343 343 345 345 344 345 346 346 347 347 347 348 350 350 350 351 350 350 353 355 358 360 361 361 361 363 364 363 359 356 354 355 356 356 357 358 358 358 360 362 364 365 364 363
338 336 336 335 334 334 334 333 333 334 338 340 341 341 340 338 338 339 339 340 341 342 343 343 343 343 344 346 346 346 348 350 350 352 353 352 353 355 355 357 359 360 361 362 363 364 365 364 363 362 361 360 360 360 360 360 360 360 361 363 366 366 365
337 338 339 336 333 334 334 333 331 330 331 332 334 335 333 332 333 335 336 337 338 339 341 342 341 340 341 343 343 344 346 347 349 351 352 353 354 354 354 355 356 357 359 360 360 361 361 361 362 362 362 363 363 364 364 364 364 364 363 363 365 366 366
337 338 338 335 333 333 333 332 332 330 328 328 329 330 330 331 332 332 334 336 337 337 338 339 339 339 338 339 340 342 343 344 346 348 349 351 352 352 353 354 354 355 357 357 357 357 356 355 356 357 358 360 360 361 364 365 366 367 366 365 366 366 366
338 338 336 335 335 335 333 332 332 331 329 328 327 327 328 329 330 331 332 334 336 336 336 338 339 338 336 337 339 340 341 342 344 345 346 348 349 350 351 352 353 354 355 354 354 352 349 348 349 351 354 357 357 357 360 362 364 366 366 366 367 368 369
339 339 336 336 337 337 334 332 331 331 330 329 327 327 327 326 327 329 330 330 333 335 335 337 338 337 336 337 339 340 341 342 343 344 345 346 347 348 348 349 350 351 353 354 353 353 352 351 352 355 357 359 359 359 361 363 365 364 365 367 368 368 367
337 336 334 334 335 335 333 331 330 330 329 328 327 326 325 324 324 326 326 326 327 328 330 333 337 337 337 338 339 340 340 340 341 342 344 344 345 346 346 346 347 348 350 352 352 354 355 355 356 358 358 357 357 357 358 359 359 357 358 361 362 359 355
333 333 334 333 333 332 330 329 329 328 327 328 328 326 325 324 324 323 324 325 323 322 323 326 331 335 337 338 340 340 340 340 341 342 342 343 344 345 346 346 347 347 348 349 350 351 352 352 352 354 353 353 354 353 351 350 348 347 347 348 349 349 348
332 333 333 332 332 332 330 327 327 327 326 328 329 328 326 325 324 323 323 323 323 323 323 322 324 328 333 337 339 340 340 340 340 341 343 344 345 345 346 347 346 347 347 347 348 348 349 349 349 349 350 349 348 349 351 350 348 346 346 346 346 346 345

ECMWFFLT2_850_thetae_045.txt.gz
Theta_e
326 325 326 325 323 324 322 318 317 319 323 321 317 321 325 320 318 321 323 326 331 333 334 337 336 338 341 340 341 340 339 341 340 340 340 340 340 340 341 342 343 343 344 343 344 344 344 344 344 344 344 345 345 346 346 346 346 347 347 347 347 346 347
325 323 324 325 324 325 322 317 318 321 321 321 321 318 317 316 316 322 324 320 321 325 333 342 341 338 340 341 341 341 340 340 339 341 341 340 341 340 340 341 342 342 344 343 344 344 344 344 344 344 344 344 345 345 346 346 347 347 347 347 347 347 347
324 324 323 323 324 324 323 321 321 322 318 316 320 319 316 315 314 317 321 322 322 324 332 341 339 339 342 341 341 342 341 340 339 340 342 341 341 341 340 341 341 342 343 343 344 344 344 344 344 344 344 344 345 345 346 346 346 346 346 346 347 347 347
323 325 323 320 322 323 324 323 321 322 321 317 318 319 317 317 317 317 316 317 321 327 335 340 340 343 344 339 341 343 340 340 339 339 342 342 342 342 341 341 341 342 343 343 344 344 343 344 344 344 345 344 345 345 346 347 347 347 347 347 347 347 348
321 322 323 322 322 323 323 320 318 318 320 319 318 319 319 320 324 325 319 313 320 335 343 343 342 346 345 340 340 342 340 339 340 340 341 342 342 343 342 342 342 342 342 343 343 344 343 344 344 344 345 345 345 346 346 347 347 347 348 348 348 348 348
318 321 325 325 324 325 323 321 320 318 318 319 316 317 321 321 322 328 324 312 317 336 342 340 342 346 346 343 339 339 339 338 339 341 341 341 343 343 343 343 342 342 343 343 343 344 344 344 345 344 345 346 345 346 347 347 348 348 348 348 348 348 349
321 323 326 326 324 326 326 324 324 322 321 320 314 315 321 320 318 326 325 316 321 341 345 339 342 344 339 337 337 338 338 337 339 341 341 342 342 342 343 343 343 343 343 343 343 343 344 344 345 345 345 346 346 346 347 347 348 348 348 348 348 349 349
323 323 324 325 325 326 324 324 325 323 322 320 319 324 327 321 317 321 321 315 320 342 353 343 339 341 334 330 332 336 336 336 339 340 340 342 341 342 344 344 344 344 343 344 344 343 344 345 345 346 346 346 347 346 347 347 348 347 348 349 349 350 350
320 321 321 321 322 324 324 325 326 324 324 322 322 328 326 320 319 320 318 315 321 346 360 347 338 343 345 339 333 333 335 337 338 339 340 341 341 342 344 344 344 345 344 344 344 344 345 345 345 346 346 347 347 347 347 347 347 348 348 350 350 350 350
317 318 319 322 323 321 322 326 325 324 327 322 320 323 320 319 323 320 318 320 329 346 349 337 336 342 344 341 332 329 334 335 336 339 340 340 341 341 343 344 344 345 344 344 345 345 345 344 345 346 346 347 347 347 348 347 348 349 349 350 350 351 351
320 318 323 332 332 322 319 323 324 324 326 323 323 322 318 324 326 320 325 333 327 329 338 335 338 337 330 333 333 331 334 334 334 338 338 340 342 341 342 344 343 344 345 345 345 345 346 345 346 346 346 346 346 347 348 347 348 349 349 350 351 351 352
323 321 324 330 330 322 319 323 322 323 326 324 323 320 320 330 324 315 334 350 327 325 345 343 338 337 331 329 331 330 332 332 333 336 336 338 340 341 342 343 343 344 344 345 346 346 346 346 346 346 346 346 347 347 348 348 349 349 350 350 351 352 353
323 323 323 324 326 325 322 324 323 323 326 323 321 322 324 331 324 315 335 351 331 329 345 341 337 340 333 328 326 325 327 329 330 333 335 338 339 340 342 342 342 344 344 345 346 346 346 347 346 347 347 347 347 348 348 349 349 350 350 351 351 352 353
322 323 324 323 323 324 323 324 324 323 325 323 322 324 324 326 325 322 333 343 335 331 336 335 335 333 327 325 326 326 327 327 330 334 336 338 340 341 342 342 342 343 343 345 345 345 346 347 347 347 347 347 348 348 348 350 350 351 351 352 352 352 353
323 323 324 323 322 324 322 323 325 323 324 325 322 323 325 325 325 325 330 335 334 332 335 336 328 324 327 334 333 330 331 330 332 337 338 339 342 342 341 342 342 343 344 345 345 345 346 346 347 347 347 348 348 348 349 349 350 351 352 352 353 352 352
324 322 323 323 321 322 320 320 324 323 322 323 323 323 325 324 323 326 326 326 330 333 334 335 330 328 338 348 339 330 333 335 333 336 339 341 342 342 343 343 342 343 343 344 345 345 345 346 346 347 347 348 348 348 349 349 350 351 352 353 353 352 352
325 322 322 323 322 320 319 319 323 324 323 324 323 325 327 326 325 325 322 322 328 331 329 330 332 334 339 343 335 330 335 338 337 336 338 341 343 343 343 342 342 343 343 343 344 345 345 346 346 346 347 347 348 348 348 348 350 352 352 353 353 353 353
324 321 321 324 322 319 319 322 325 325 325 325 324 324 325 324 324 325 326 327 327 327 329 330 329 333 337 340 341 341 341 337 337 340 339 339 342 343 343 343 343 342 343 344 344 344 345 345 345 346 347 347 347 347 348 349 351 351 353 353 353 354 354
323 322 323 326 325 323 326 331 331 326 324 325 325 329 332 332 332 331 329 330 333 334 332 328 330 338 343 345 348 350 347 342 341 342 341 341 341 340 341 343 343 343 343 343 344 344 345 345 345 346 347 348 348 348 349 350 350 350 351 352 352 354 354
324 325 326 327 329 333 337 338 332 326 328 329 327 333 342 348 350 343 330 335 351 351 337 330 335 344 346 347 349 350 351 350 347 344 343 344 344 343 342 342 341 342 343 343 344 344 345 346 346 346 347 347 347 349 349 350 350 350 351 352 352 353 354
325 326 326 326 328 329 331 334 332 329 330 330 329 336 344 353 352 348 343 349 357 351 339 335 341 344 344 349 352 349 350 353 350 347 344 343 344 345 345 344 343 342 343 343 344 344 344 345 345 345 346 346 346 348 349 349 350 350 351 352 352 352 353
325 325 326 326 326 327 330 336 337 335 333 334 332 340 350 357 353 347 352 354 349 344 342 339 339 343 351 361 358 349 349 352 351 350 346 342 341 341 342 344 345 344 344 343 344 344 344 344 345 345 345 346 345 347 349 349 350 350 350 351 351 351 352
325 325 326 326 326 332 338 337 337 336 333 336 335 333 344 358 356 346 351 355 348 343 340 336 340 347 359 370 364 352 349 351 350 348 346 342 341 339 337 339 340 341 344 346 347 348 346 345 346 346 346 346 346 346 347 348 348 349 349 348 349 350 350
323 324 327 327 327 335 339 335 335 335 333 336 332 324 335 355 355 345 349 357 353 344 336 339 353 361 359 363 360 351 349 352 350 347 345 342 342 342 340 338 337 338 339 341 346 350 348 347 347 346 346 346 347 347 348 349 349 349 347 345 346 348 350
327 330 333 332 332 338 337 333 333 334 335 334 328 326 339 353 352 346 347 349 349 344 340 346 358 358 352 352 352 348 349 352 351 349 348 344 342 341 338 337 338 337 336 336 340 343 346 348 349 348 349 349 348 348 349 350 350 349 346 344 344 346 350
335 338 340 337 335 336 334 332 333 336 335 331 332 340 348 350 348 348 347 345 346 347 345 347 350 348 347 349 349 348 349 349 348 350 349 346 345 344 340 338 337 336 336 336 336 337 339 341 343 345 348 350 350 351 351 351 351 349 349 348 347 349 352
339 341 343 342 338 335 333 333 335 337 338 338 341 346 349 347 346 346 345 345 346 346 345 345 345 345 346 347 347 348 349 347 346 345 341 341 343 344 344 343 340 337 336 335 335 337 336 337 338 340 342 346 350 354 354 351 350 350 351 351 351 352 353
342 345 345 342 338 334 333 334 335 333 332 336 342 346 346 346 345 344 344 344 344 345 345 343 343 343 343 344 346 347 348 348 348 347 344 343 342 341 341 341 341 341 341 339 339 340 340 341 342 342 343 345 348 351 350 350 352 354 354 353 353 354 355
341 344 342 338 335 333 332 333 333 330 329 333 339 342 342 343 343 343 343 343 343 344 344 342 342 343 342 343 344 344 345 347 349 350 351 351 351 350 349 349 349 349 348 347 346 345 345 346 347 348 350 350 352 352 352 353 356 356 356 358 358 357 356
337 337 336 335 334 333 332 331 331 329 328 330 334 335 335 337 339 341 342 342 342 341 341 341 341 341 342 342 343 343 344 345 346 348 350 351 352 352 353 354 355 355 355 354 354 353 352 351 352 354 353 353 354 357 358 358 359 359 360 362 362 361 360
337 336 335 335 335 333 331 330 329 328 328 327 328 329 330 331 335 337 339 341 341 339 339 340 340 340 341 342 341 342 343 343 344 346 348 349 351 352 352 353 354 355 356 357 357 358 358 357 356 355 354 352 353 356 357 360 361 362 362 363 362 363 362
337 337 335 334 333 331 331 329 328 327 327 326 326 327 328 330 333 336 338 340 341 340 340 341 341 341 342 341 342 342 343 343 344 345 346 347 349 350 352 353 353 353 354 354 354 356 356 357 357 357 357 357 357 358 359 361 362 363 364 363 364 364 364
335 335 334 334 334 333 330 329 328 326 326 326 325 326 327 329 331 334 337 339 340 340 341 341 342 342 342 341 342 342 342 343 344 345 347 348 348 350 351 352 352 352 352 352 352 352 352 352 353 352 353 353 354 356 356 357 360 362 364 364 364 364 364
334 334 334 335 338 337 331 328 328 327 325 325 325 325 325 326 327 329 331 333 335 337 338 341 341 341 341 341 341 341 342 343 344 345 346 347 347 348 349 349 350 350 350 351 352 352 352 352 352 352 352 352 352 353 353 354 356 358 360 362 363 364 365
333 333 333 332 334 335 330 327 327 327 325 325 325 324 324 324 324 327 328 329 330 332 335 338 340 340 340 340 341 342 342 342 343 344 344 345 345 346 346 346 347 348 348 349 350 351 351 352 352 353 354 354 353 352 352 353 353 354 355 355 356 359 363
331 332 332 331 331 331 328 326 326 326 325 325 324 324 323 322 323 325 326 327 328 329 330 333 337 340 341 341 342 342 342 343 344 344 344 345 345 345 345 345 346 346 347 347 348 348 349 349 349 350 349 348 348 348 348 349 350 349 349 346 347 352 358
331 332 332 331 330 329 327 326 326 325 324 324 323 323 322 322 322 324 325 326 327 329 330 331 333 337 340 341 342 343 343 343 343 344 344 345 345 345 345 345 345 346 346 346 347 347 348 346 343 340 338 338 340 343 345 347 348 348 347 345 343 344 348

ECMWFFLT2_850_thetae_048.txt.gz
Theta_e
324 325 325 324 324 324 321 319 318 320 322 320 318 320 323 319 316 321 324 325 329 329 331 337 332 330 334 336 338 337 336 338 338 338 339 339 340 341 342 343 344 344 345 345 345 345 345 345 345 345 344 344 345 344 345 346 345 346 346 346 346 346 346
322 322 325 324 323 324 321 318 319 320 320 321 320 318 318 317 316 321 323 321 322 323 330 341 338 332 335 336 338 338 336 337 337 337 338 338 339 340 341 342 343 343 344 344 345 345 345 345 344 345 344 343 343 343 344 344 344 345 345 345 346 346 346
323 321 323 323 322 322 321 321 322 322 320 318 319 319 317 317 318 319 321 322 323 323 331 341 336 333 337 337 338 339 338 338 337 337 338 338 338 339 339 341 342 342 343 343 345 344 344 344 344 344 344 343 344 343 343 343 343 343 343 344 346 346 346
322 322 322 320 321 321 322 321 320 322 322 318 318 320 319 319 320 320 318 318 320 326 336 342 339 339 339 336 338 340 338 337 337 337 339 338 338 338 338 339 340 341 342 343 343 344 344 344 344 344 344 343 343 343 343 343 343 343 345 345 346 346 346
320 320 321 321 322 322 320 320 318 318 319 319 318 319 319 320 322 321 318 314 320 334 342 342 343 343 338 335 337 339 337 336 337 338 338 338 339 339 339 339 339 340 341 342 342 343 343 343 344 343 343 344 343 343 343 343 343 344 345 346 346 346 346
317 320 323 322 323 323 321 321 319 318 319 318 317 317 319 320 320 324 321 314 319 335 339 339 345 345 340 337 336 337 336 334 336 338 338 339 339 339 339 339 339 339 340 341 342 342 343 343 343 343 343 344 343 343 343 343 344 344 344 345 345 345 346
320 322 324 322 323 324 323 323 322 320 320 318 316 316 319 318 318 324 324 316 322 338 337 335 343 346 339 333 333 336 333 332 336 338 338 339 338 339 340 339 339 340 339 340 340 341 343 342 343 343 343 343 343 343 343 343 344 344 344 344 344 345 346
323 324 324 322 323 323 321 323 323 321 320 319 319 322 323 320 317 320 320 316 323 340 340 334 337 337 331 327 328 331 331 331 334 335 337 339 338 339 340 339 340 340 339 340 340 340 342 342 343 343 343 343 343 343 343 343 344 343 344 344 345 346 346
319 320 322 321 322 322 321 323 323 322 322 321 320 325 324 319 318 320 319 315 323 341 345 337 334 334 334 331 326 326 329 331 332 334 335 337 338 338 339 339 340 340 339 340 340 341 341 342 342 343 343 343 343 343 343 343 343 344 344 345 346 346 346
318 318 321 322 322 323 323 324 324 322 323 321 319 320 318 318 323 321 316 320 332 343 340 332 333 336 337 334 327 325 329 330 331 333 333 334 337 338 338 339 340 341 341 341 340 340 341 341 342 342 343 343 343 343 343 343 343 343 344 345 345 346 346
322 321 324 324 323 322 321 321 322 323 324 322 321 319 316 322 327 319 320 329 330 328 329 329 334 336 335 336 333 327 328 329 330 332 332 334 336 337 338 339 340 340 342 341 341 341 341 341 342 342 342 343 343 343 343 343 343 344 344 345 345 346 347
322 321 322 321 321 322 321 321 322 322 324 323 321 319 320 329 325 316 328 340 327 322 332 334 337 339 337 339 335 326 325 328 330 332 332 333 335 336 338 338 339 341 341 342 342 342 341 341 341 342 343 342 343 343 343 343 344 344 344 345 345 346 347
319 319 319 320 321 323 322 322 321 320 323 323 320 320 324 329 323 317 331 341 329 328 338 337 340 343 337 335 330 323 324 326 328 330 331 332 332 333 336 337 339 341 340 341 342 342 342 342 341 342 342 343 343 343 343 344 343 344 345 345 345 346 347
319 318 320 321 321 321 322 321 321 320 322 322 321 323 325 326 323 322 334 340 332 329 335 336 334 330 326 326 324 322 324 325 325 326 327 327 327 328 332 335 337 339 340 341 342 342 343 342 342 343 342 343 343 343 343 344 343 345 345 345 346 346 347
320 319 320 320 319 321 322 321 322 320 320 321 321 322 323 324 325 324 329 335 333 332 337 335 326 319 321 327 326 323 325 325 325 326 326 326 328 328 329 332 335 338 340 340 342 343 343 343 343 343 343 343 343 343 344 344 344 345 345 345 346 346 346
321 320 320 319 319 321 322 322 323 321 319 320 321 322 324 324 324 325 325 326 328 333 337 335 327 323 330 335 328 323 326 328 329 330 330 329 329 329 330 331 333 336 338 341 341 342 343 343 343 343 343 344 343 344 344 344 344 345 346 346 346 346 346
324 321 317 318 321 322 321 320 323 323 321 321 321 322 326 325 324 325 323 323 327 334 335 332 329 329 333 334 327 325 330 332 333 333 332 331 330 330 333 334 335 336 337 339 341 341 343 343 343 344 344 344 344 344 344 345 345 345 346 346 347 346 347
325 321 318 321 325 324 322 321 323 324 323 323 323 322 324 325 325 325 325 326 329 331 331 331 330 329 330 329 329 333 338 336 335 336 335 334 332 332 335 336 337 339 338 339 341 341 342 343 342 343 344 344 345 345 345 345 345 345 346 346 346 347 347
325 324 322 326 328 326 323 321 324 327 325 320 322 325 325 325 324 324 327 329 329 330 330 327 326 329 333 336 340 342 344 340 338 338 337 339 338 337 338 338 338 340 340 340 341 341 342 343 343 344 344 344 344 345 345 346 346 346 346 346 347 348 348
325 326 327 328 328 325 323 324 331 336 339 333 329 323 320 327 329 325 326 329 330 331 327 321 324 333 340 345 348 348 347 344 342 342 341 341 340 340 341 340 339 341 341 340 341 341 341 343 343 343 344 344 345 345 345 346 346 346 346 347 347 348 349
323 325 326 326 325 324 329 336 337 338 341 339 336 331 328 337 342 332 324 328 333 332 327 325 333 342 344 347 349 348 349 348 345 347 347 345 344 342 342 342 341 341 341 341 342 342 341 342 342 343 344 344 345 346 346 346 347 347 347 348 348 348 349
323 323 323 325 326 328 335 338 334 333 334 334 334 333 334 343 352 339 324 324 336 340 339 337 340 343 344 350 350 347 350 351 348 349 350 348 346 344 342 343 344 342 342 341 340 341 341 342 342 343 343 344 345 345 345 346 348 348 348 348 347 348 348
323 322 322 324 325 328 335 335 332 332 333 332 333 331 330 340 353 343 331 326 335 342 346 344 342 339 342 353 352 347 350 351 350 351 351 350 349 346 343 342 342 343 344 343 342 342 342 342 342 342 343 344 344 345 345 346 347 347 347 347 347 348 348
321 323 324 323 322 327 334 333 332 332 332 332 331 328 328 338 345 341 337 333 332 335 339 341 343 340 341 347 349 348 349 351 351 352 352 351 352 350 347 344 341 340 340 342 345 346 345 344 344 343 343 344 344 344 345 346 346 346 346 346 347 348 348
318 321 322 321 324 331 334 332 331 332 332 330 328 329 332 335 339 342 340 334 328 331 336 337 342 347 345 341 345 349 350 351 352 352 353 353 353 353 352 350 347 344 341 342 344 346 348 348 347 345 345 344 344 344 345 345 346 345 345 346 347 348 349
319 322 322 323 328 332 332 332 331 331 333 334 333 332 331 332 339 345 343 336 330 333 337 338 342 345 344 344 347 349 349 350 350 351 352 352 353 353 352 350 348 345 344 344 344 343 345 347 348 349 347 346 346 345 345 345 346 345 346 348 348 348 349
326 329 328 329 332 332 331 333 334 332 334 336 332 329 329 334 341 344 343 341 338 337 340 342 343 344 344 345 346 346 346 347 347 347 348 348 348 348 346 343 344 344 341 341 342 343 345 346 347 349 349 350 350 349 348 347 347 347 348 348 348 349 349
333 335 334 333 333 331 331 333 335 332 330 330 328 327 330 335 338 340 341 343 342 341 343 344 343 344 344 344 344 344 345 345 345 343 343 344 345 346 345 344 346 347 344 342 342 343 344 347 349 351 351 351 352 352 352 352 351 351 351 350 350 350 350
335 338 339 335 332 331 330 330 330 329 327 327 326 327 329 331 332 335 340 343 342 342 343 343 343 343 343 342 342 342 343 343 343 342 342 341 344 347 347 346 346 345 346 348 349 347 349 351 354 356 357 356 355 356 355 355 355 356 356 355 355 354 353
334 336 336 333 331 331 329 327 327 326 326 326 325 325 327 329 331 334 337 340 341 341 342 342 342 342 341 341 342 342 343 344 344 344 343 342 344 346 346 347 348 348 349 352 353 353 354 355 356 358 359 359 359 359 359 358 358 358 357 358 358 358 357
333 334 334 333 332 331 329 327 327 326 326 327 326 325 326 328 330 334 336 337 339 340 340 340 340 340 340 341 341 342 343 344 344 345 344 343 342 342 342 344 346 346 347 349 352 353 354 355 354 354 355 356 356 357 358 359 359 359 360 360 360 360 360
333 334 334 333 331 329 327 326 326 326 327 326 325 326 328 329 330 332 334 335 336 336 337 338 338 339 340 341 341 342 343 343 344 345 346 348 347 346 345 343 342 341 341 343 347 351 353 353 353 353 352 352 352 352 353 353 354 356 357 359 360 361 362
333 334 333 333 333 331 328 326 326 326 326 326 325 325 327 330 331 332 333 334 334 334 335 337 338 339 340 342 342 343 343 343 343 343 344 346 347 348 349 348 347 347 346 347 348 350 350 351 351 351 351 350 350 350 349 349 349 349 349 351 353 356 358
332 333 333 334 336 335 329 326 327 327 325 324 325 325 325 327 331 333 334 333 332 332 333 336 338 338 340 342 342 342 343 343 342 342 342 343 344 344 345 346 347 348 348 348 347 348 348 348 348 348 348 348 347 347 347 347 346 347 346 346 347 348 350
331 332 331 331 333 333 329 327 328 328 325 324 324 325 324 324 327 332 335 336 335 331 330 332 336 338 339 341 341 341 342 342 342 342 343 343 343 344 344 344 345 345 345 346 347 347 347 347 347 347 346 345 345 345 345 345 344 344 344 345 346 347 347
326 331 331 329 330 330 327 327 328 328 325 324 324 324 325 325 327 331 335 336 337 334 328 328 333 338 340 341 341 341 342 342 343 342 343 343 344 344 344 344 345 345 346 346 346 345 344 343 343 343 341 340 340 340 341 342 343 343 344 345 345 345 345
326 330 330 329 328 327 325 326 328 327 326 326 325 323 324 326 327 329 331 331 333 332 329 327 331 338 341 341 342 342 342 342 342 342 342 343 344 344 343 343 344 345 346 344 341 338 337 340 341 339 338 337 337 337 338 339 341 342 342 344 346 346 345